| time (UTC) | temp C | wind direction | speed KPH | gust KPH | rain 1hr cm | rain 24hr cm | rain mn cm | humidity % | barometer mb |
| 20260504215026 | 15 | 180 | 4.8 | 14.5 | 0.00 | 0.00 | 0.00 | 78 | 1011.9 |
| 20260504214926 | 15 | 261 | 4.8 | 12.9 | 0.00 | 0.00 | 0.00 | 77 | 1012.0 |
| 20260504214826 | 15 | 171 | 4.8 | 12.9 | 0.00 | 0.00 | 0.00 | 78 | 1011.9 |
| 20260504214722 | 15 | 178 | 3.2 | 12.9 | 0.00 | 0.00 | 0.00 | 77 | 1011.9 |
| 20260504214622 | 15 | 252 | 3.2 | 12.9 | 0.00 | 0.00 | 0.00 | 77 | 1011.9 |
| 20260504214522 | 15 | 300 | 3.2 | 12.9 | 0.00 | 0.00 | 0.00 | 77 | 1012.0 |
| 20260504214422 | 15 | 157 | 3.2 | 12.9 | 0.00 | 0.00 | 0.00 | 77 | 1011.9 |
| 20260504214319 | 15 | 116 | 3.2 | 12.9 | 0.00 | 0.00 | 0.00 | 77 | 1011.9 |
| 20260504214220 | 15 | 138 | 3.2 | 12.9 | 0.00 | 0.00 | 0.00 | 77 | 1012.0 |
| 20260504214118 | 15 | 312 | 3.2 | 9.7 | 0.00 | 0.00 | 0.00 | 77 | 1011.9 |
| 20260504214016 | 15 | 331 | 3.2 | 9.7 | 0.00 | 0.00 | 0.00 | 77 | 1012.0 |
| 20260504213916 | 15 | 267 | 3.2 | 14.5 | 0.00 | 0.00 | 0.00 | 77 | 1012.0 |
| 20260504213814 | 15 | 98 | 3.2 | 14.5 | 0.00 | 0.00 | 0.00 | 77 | 1012.0 |
| 20260504213708 | 15 | 244 | 3.2 | 14.5 | 0.00 | 0.00 | 0.00 | 77 | 1012.0 |
| 20260504213608 | 15 | 0 | 3.2 | 14.5 | 0.00 | 0.00 | 0.00 | 77 | 1012.0 |
| 20260504213508 | 15 | 266 | 3.2 | 14.5 | 0.00 | 0.00 | 0.00 | 77 | 1011.9 |
| 20260504213408 | 15 | 5 | 3.2 | 14.5 | 0.00 | 0.00 | 0.00 | 77 | 1012.0 |
| 20260504213307 | 15 | 324 | 3.2 | 14.5 | 0.00 | 0.00 | 0.00 | 77 | 1012.0 |
| 20260504213204 | 15 | 250 | 3.2 | 14.5 | 0.00 | 0.00 | 0.00 | 77 | 1012.0 |
| 20260504213104 | 15 | 279 | 3.2 | 14.5 | 0.00 | 0.00 | 0.00 | 78 | 1012.0 |
| 20260504213006 | 15 | 321 | 3.2 | 14.5 | 0.00 | 0.00 | 0.00 | 78 | 1012.0 |
| 20260504212904 | 15 | 213 | 3.2 | 11.3 | 0.00 | 0.00 | 0.00 | 78 | 1012.0 |
| 20260504212802 | 15 | 223 | 3.2 | 11.3 | 0.00 | 0.00 | 0.00 | 78 | 1012.0 |
| 20260504212702 | 15 | 261 | 1.6 | 11.3 | 0.00 | 0.00 | 0.00 | 78 | 1012.1 |
| 20260504212601 | 15 | 223 | 3.2 | 11.3 | 0.00 | 0.00 | 0.00 | 78 | 1012.1 |
| 20260504212500 | 15 | 165 | 3.2 | 11.3 | 0.00 | 0.00 | 0.00 | 78 | 1012.1 |
| 20260504212359 | 15 | 186 | 3.2 | 17.7 | 0.00 | 0.00 | 0.00 | 78 | 1012.1 |
| 20260504212256 | 15 | 172 | 3.2 | 17.7 | 0.00 | 0.00 | 0.00 | 78 | 1012.1 |
| 20260504212152 | 15 | 339 | 4.8 | 17.7 | 0.00 | 0.00 | 0.00 | 78 | 1012.1 |
| 20260504212050 | 15 | 162 | 4.8 | 22.5 | 0.00 | 0.00 | 0.00 | 78 | 1012.1 |
| 20260504212036 | 15 | 190 | 4.8 | 22.5 | 0.00 | 0.00 | 0.00 | 78 | 1012.1 |
| 20260504211850 | 15 | 223 | 4.8 | 22.5 | 0.00 | 0.00 | 0.00 | 77 | 1012.0 |
| 20260504211749 | 15 | 190 | 4.8 | 22.5 | 0.00 | 0.00 | 0.00 | 77 | 1012.1 |
| 20260504211644 | 15 | 283 | 4.8 | 22.5 | 0.00 | 0.00 | 0.00 | 77 | 1012.0 |
| 20260504211544 | 15 | 231 | 4.8 | 22.5 | 0.00 | 0.00 | 0.00 | 77 | 1012.1 |
| 20260504211444 | 15 | 276 | 4.8 | 22.5 | 0.00 | 0.00 | 0.00 | 77 | 1012.0 |
| 20260504211344 | 15 | 258 | 4.8 | 22.5 | 0.00 | 0.00 | 0.00 | 77 | 1012.1 |
| 20260504211244 | 15 | 242 | 4.8 | 22.5 | 0.00 | 0.00 | 0.00 | 77 | 1012.0 |
| 20260504211138 | 15 | 297 | 4.8 | 22.5 | 0.00 | 0.00 | 0.00 | 77 | 1012.0 |
| 20260504211038 | 15 | 278 | 4.8 | 17.7 | 0.00 | 0.00 | 0.00 | 77 | 1012.0 |
| 20260504210938 | 15 | 193 | 4.8 | 17.7 | 0.00 | 0.00 | 0.00 | 77 | 1012.0 |
| 20260504210838 | 15 | 230 | 4.8 | 17.7 | 0.00 | 0.00 | 0.00 | 77 | 1012.0 |
| 20260504210738 | 15 | 346 | 4.8 | 17.7 | 0.00 | 0.00 | 0.00 | 77 | 1012.0 |
| 20260504210636 | 15 | 281 | 4.8 | 17.7 | 0.00 | 0.00 | 0.00 | 77 | 1012.0 |
| 20260504210536 | 15 | 232 | 4.8 | 17.7 | 0.00 | 0.00 | 0.00 | 77 | 1012.0 |
| 20260504210436 | 15 | 298 | 4.8 | 17.7 | 0.00 | 0.00 | 0.00 | 77 | 1012.0 |
| 20260504210334 | 15 | 202 | 4.8 | 17.7 | 0.00 | 0.00 | 0.00 | 77 | 1012.0 |
| 20260504210232 | 15 | 184 | 4.8 | 17.7 | 0.00 | 0.00 | 0.00 | 77 | 1012.0 |
| 20260504210126 | 15 | 271 | 4.8 | 16.1 | 0.00 | 0.00 | 0.00 | 77 | 1012.0 |
| 20260504210026 | 15 | 229 | 4.8 | 16.1 | 0.00 | 0.00 | 0.00 | 77 | 1011.9 |
| 20260504205926 | 15 | 284 | 4.8 | 16.1 | 0.00 | 0.00 | 0.00 | 77 | 1012.0 |
| 20260504205826 | 15 | 146 | 4.8 | 16.1 | 0.00 | 0.00 | 0.00 | 77 | 1012.0 |
| 20260504205726 | 15 | 180 | 4.8 | 16.1 | 0.00 | 0.00 | 0.00 | 78 | 1012.0 |
| 20260504205620 | 15 | 287 | 3.2 | 11.3 | 0.00 | 0.00 | 0.00 | 78 | 1012.0 |
| 20260504205520 | 15 | 273 | 3.2 | 11.3 | 0.00 | 0.00 | 0.00 | 78 | 1011.9 |
| 20260504205420 | 15 | 253 | 3.2 | 11.3 | 0.00 | 0.00 | 0.00 | 78 | 1012.0 |
| 20260504205320 | 15 | 203 | 3.2 | 11.3 | 0.00 | 0.00 | 0.00 | 78 | 1012.0 |
| 20260504205220 | 15 | 228 | 3.2 | 11.3 | 0.00 | 0.00 | 0.00 | 78 | 1012.0 |
| 20260504205113 | 15 | 202 | 3.2 | 12.9 | 0.00 | 0.00 | 0.00 | 78 | 1012.0 |
| 20260504205013 | 15 | 246 | 3.2 | 12.9 | 0.00 | 0.00 | 0.00 | 77 | 1012.0 |
| 20260504204914 | 15 | 267 | 3.2 | 12.9 | 0.00 | 0.00 | 0.00 | 78 | 1012.0 |
| 20260504204815 | 15 | 225 | 3.2 | 12.9 | 0.00 | 0.00 | 0.00 | 78 | 1012.0 |
| 20260504204713 | 15 | 85 | 3.2 | 12.9 | 0.00 | 0.00 | 0.00 | 77 | 1012.0 |
| 20260504204608 | 15 | 252 | 3.2 | 12.9 | 0.00 | 0.00 | 0.00 | 77 | 1012.0 |
| 20260504204508 | 15 | 42 | 3.2 | 12.9 | 0.00 | 0.00 | 0.00 | 77 | 1011.9 |
| 20260504204408 | 15 | 242 | 3.2 | 12.9 | 0.00 | 0.00 | 0.00 | 78 | 1012.0 |
| 20260504204308 | 15 | 96 | 3.2 | 12.9 | 0.00 | 0.00 | 0.00 | 78 | 1012.0 |
| 20260504204207 | 15 | 340 | 3.2 | 12.9 | 0.00 | 0.00 | 0.00 | 78 | 1012.1 |
| 20260504204104 | 15 | 92 | 3.2 | 11.3 | 0.00 | 0.00 | 0.00 | 78 | 1012.0 |
| 20260504204005 | 15 | 196 | 3.2 | 11.3 | 0.00 | 0.00 | 0.00 | 78 | 1012.0 |
| 20260504203904 | 15 | 194 | 3.2 | 11.3 | 0.00 | 0.00 | 0.00 | 78 | 1012.0 |
| 20260504203804 | 15 | 205 | 3.2 | 11.3 | 0.00 | 0.00 | 0.00 | 78 | 1012.0 |
| 20260504203702 | 15 | 163 | 3.2 | 11.3 | 0.00 | 0.00 | 0.00 | 78 | 1012.1 |
| 20260504203556 | 15 | 264 | 3.2 | 14.5 | 0.00 | 0.00 | 0.00 | 78 | 1012.0 |
| 20260504203455 | 15 | 319 | 3.2 | 14.5 | 0.00 | 0.00 | 0.00 | 78 | 1012.0 |
| 20260504203442 | 15 | 234 | 3.2 | 14.5 | 0.00 | 0.00 | 0.00 | 78 | 1012.0 |
| 20260504203256 | 15 | 210 | 3.2 | 14.5 | 0.00 | 0.00 | 0.00 | 78 | 1012.1 |
| 20260504203156 | 15 | 260 | 3.2 | 14.5 | 0.00 | 0.00 | 0.00 | 78 | 1012.0 |
| 20260504202936 | 15 | 234 | 3.2 | 14.5 | 0.00 | 0.00 | 0.00 | 77 | 1012.0 |
| 20260504202750 | 15 | 242 | 3.2 | 14.5 | 0.00 | 0.00 | 0.00 | 77 | 1012.0 |
| 20260504202651 | 15 | 248 | 3.2 | 14.5 | 0.00 | 0.00 | 0.00 | 78 | 1012.0 |
| 20260504202550 | 15 | 248 | 3.2 | 12.9 | 0.00 | 0.00 | 0.00 | 78 | 1012.0 |
| 20260504202447 | 15 | 225 | 3.2 | 12.9 | 0.00 | 0.00 | 0.00 | 78 | 1012.0 |
| 20260504202346 | 15 | 36 | 3.2 | 12.9 | 0.00 | 0.00 | 0.00 | 78 | 1012.1 |
| 20260504202246 | 15 | 168 | 3.2 | 12.9 | 0.00 | 0.00 | 0.00 | 78 | 1012.1 |
| 20260504202144 | 15 | 211 | 3.2 | 12.9 | 0.00 | 0.00 | 0.00 | 78 | 1012.1 |
| 20260504202040 | 15 | 227 | 3.2 | 12.9 | 0.00 | 0.00 | 0.00 | 78 | 1012.1 |
| 20260504201940 | 15 | 216 | 3.2 | 12.9 | 0.00 | 0.00 | 0.00 | 78 | 1012.0 |
| 20260504201840 | 15 | 71 | 3.2 | 12.9 | 0.00 | 0.00 | 0.00 | 78 | 1012.1 |
| 20260504201739 | 15 | 235 | 3.2 | 12.9 | 0.00 | 0.00 | 0.00 | 78 | 1012.0 |
| 20260504201637 | 15 | 294 | 3.2 | 12.9 | 0.00 | 0.00 | 0.00 | 78 | 1012.0 |
| 20260504201536 | 15 | 136 | 3.2 | 22.5 | 0.00 | 0.00 | 0.00 | 78 | 1012.0 |
| 20260504201436 | 15 | 249 | 3.2 | 22.5 | 0.00 | 0.00 | 0.00 | 78 | 1012.0 |
| 20260504201336 | 15 | 215 | 3.2 | 22.5 | 0.00 | 0.00 | 0.00 | 78 | 1012.0 |
| 20260504201234 | 15 | 285 | 3.2 | 22.5 | 0.00 | 0.00 | 0.00 | 78 | 1012.0 |
| 20260504201132 | 15 | 281 | 3.2 | 22.5 | 0.00 | 0.00 | 0.00 | 78 | 1012.1 |
| 20260504201028 | 15 | 230 | 3.2 | 22.5 | 0.00 | 0.00 | 0.00 | 78 | 1012.0 |
| 20260504200926 | 15 | 215 | 3.2 | 22.5 | 0.00 | 0.00 | 0.00 | 78 | 1012.1 |
| 20260504200825 | 15 | 287 | 3.2 | 22.5 | 0.00 | 0.00 | 0.00 | 78 | 1012.1 |
| 20260504200726 | 15 | 86 | 3.2 | 22.5 | 0.00 | 0.00 | 0.00 | 78 | 1012.2 |
| 20260504200625 | 15 | 232 | 3.2 | 22.5 | 0.00 | 0.00 | 0.00 | 78 | 1012.1 |
| 20260504200520 | 15 | 300 | 3.2 | 22.5 | 0.00 | 0.00 | 0.00 | 78 | 1012.1 |
| 20260504200420 | 15 | 266 | 4.8 | 22.5 | 0.00 | 0.00 | 0.00 | 78 | 1012.1 |
| 20260504200320 | 15 | 36 | 4.8 | 22.5 | 0.00 | 0.00 | 0.00 | 78 | 1012.2 |
| 20260504200220 | 15 | 355 | 4.8 | 22.5 | 0.00 | 0.00 | 0.00 | 78 | 1012.2 |
| 20260504200119 | 15 | 190 | 4.8 | 22.5 | 0.00 | 0.00 | 0.00 | 77 | 1012.2 |
| 20260504200014 | 15 | 207 | 4.8 | 22.5 | 0.00 | 0.00 | 0.00 | 77 | 1012.1 |
| 20260504195914 | 15 | 286 | 4.8 | 22.5 | 0.00 | 0.00 | 0.00 | 77 | 1012.2 |
| 20260504195814 | 15 | 162 | 4.8 | 22.5 | 0.00 | 0.00 | 0.00 | 78 | 1012.2 |
| 20260504195714 | 15 | 196 | 4.8 | 22.5 | 0.00 | 0.00 | 0.00 | 78 | 1012.1 |
| 20260504195614 | 15 | 215 | 3.2 | 12.9 | 0.00 | 0.00 | 0.00 | 78 | 1012.1 |
| 20260504195507 | 15 | 188 | 3.2 | 12.9 | 0.00 | 0.00 | 0.00 | 78 | 1012.1 |
| 20260504195409 | 15 | 202 | 3.2 | 8.0 | 0.00 | 0.00 | 0.00 | 78 | 1012.1 |
| 20260504195309 | 15 | 244 | 3.2 | 8.0 | 0.00 | 0.00 | 0.00 | 78 | 1012.1 |
| 20260504195207 | 15 | 244 | 3.2 | 8.0 | 0.00 | 0.00 | 0.00 | 78 | 1012.1 |
| 20260504195108 | 15 | 299 | 3.2 | 17.7 | 0.00 | 0.00 | 0.00 | 78 | 1012.0 |
| 20260504195006 | 15 | 186 | 3.2 | 17.7 | 0.00 | 0.00 | 0.00 | 78 | 1012.1 |
| 20260504194906 | 15 | 186 | 3.2 | 17.7 | 0.00 | 0.00 | 0.00 | 78 | 1012.0 |
| 20260504194806 | 15 | 327 | 3.2 | 17.7 | 0.00 | 0.00 | 0.00 | 78 | 1012.1 |
| 20260504194704 | 15 | 248 | 3.2 | 17.7 | 0.00 | 0.00 | 0.00 | 78 | 1012.0 |
| 20260504194601 | 15 | 248 | 3.2 | 17.7 | 0.00 | 0.00 | 0.00 | 78 | 1012.0 |
| 20260504194458 | 15 | 175 | 3.2 | 17.7 | 0.00 | 0.00 | 0.00 | 79 | 1012.0 |
| 20260504194355 | 15 | 173 | 3.2 | 17.7 | 0.00 | 0.00 | 0.00 | 79 | 1012.1 |
| 20260504194256 | 15 | 201 | 3.2 | 17.7 | 0.00 | 0.00 | 0.00 | 79 | 1012.0 |
| 20260504194158 | 15 | 336 | 3.2 | 17.7 | 0.00 | 0.00 | 0.00 | 78 | 1012.0 |
| 20260504194056 | 15 | 205 | 3.2 | 17.7 | 0.00 | 0.00 | 0.00 | 78 | 1012.0 |
| 20260504193952 | 15 | 281 | 3.2 | 17.7 | 0.00 | 0.00 | 0.00 | 78 | 1012.0 |
| 20260504193850 | 15 | 315 | 3.2 | 17.7 | 0.00 | 0.00 | 0.00 | 78 | 1012.0 |
| 20260504193750 | 15 | 287 | 3.2 | 17.7 | 0.00 | 0.00 | 0.00 | 78 | 1012.0 |
| 20260504193650 | 15 | 240 | 4.8 | 17.7 | 0.00 | 0.00 | 0.00 | 78 | 1012.0 |
| 20260504193549 | 15 | 165 | 4.8 | 17.7 | 0.00 | 0.00 | 0.00 | 78 | 1012.0 |
| 20260504193444 | 15 | 122 | 4.8 | 17.7 | 0.00 | 0.00 | 0.00 | 79 | 1012.0 |
| 20260504193344 | 15 | 157 | 4.8 | 17.7 | 0.00 | 0.00 | 0.00 | 79 | 1012.0 |
| 20260504193244 | 15 | 245 | 4.8 | 17.7 | 0.00 | 0.00 | 0.00 | 79 | 1012.0 |
| 20260504193144 | 15 | 239 | 3.2 | 17.7 | 0.00 | 0.00 | 0.00 | 79 | 1012.0 |
| 20260504193043 | 15 | 160 | 3.2 | 11.3 | 0.00 | 0.00 | 0.00 | 79 | 1012.0 |
| 20260504192940 | 15 | 196 | 3.2 | 11.3 | 0.00 | 0.00 | 0.00 | 79 | 1012.0 |
| 20260504192838 | 15 | 184 | 3.2 | 11.3 | 0.00 | 0.00 | 0.00 | 78 | 1012.0 |
| 20260504192738 | 15 | 200 | 3.2 | 11.3 | 0.00 | 0.00 | 0.00 | 79 | 1012.0 |
| 20260504192638 | 15 | 233 | 3.2 | 11.3 | 0.00 | 0.00 | 0.00 | 79 | 1012.1 |
| 20260504192538 | 15 | 286 | 3.2 | 11.3 | 0.00 | 0.00 | 0.00 | 79 | 1012.0 |
| 20260504192436 | 15 | 209 | 3.2 | 11.3 | 0.00 | 0.00 | 0.00 | 79 | 1012.0 |
| 20260504192335 | 15 | 111 | 3.2 | 11.3 | 0.00 | 0.00 | 0.00 | 79 | 1012.0 |
| 20260504192236 | 15 | 300 | 3.2 | 11.3 | 0.00 | 0.00 | 0.00 | 78 | 1012.1 |
| 20260504192134 | 15 | 190 | 3.2 | 11.3 | 0.00 | 0.00 | 0.00 | 78 | 1012.0 |
| 20260504192031 | 15 | 261 | 3.2 | 11.3 | 0.00 | 0.00 | 0.00 | 78 | 1012.1 |
| 20260504191928 | 15 | 323 | 3.2 | 11.3 | 0.00 | 0.00 | 0.00 | 78 | 1012.1 |
| 20260504191828 | 15 | 168 | 3.2 | 11.3 | 0.00 | 0.00 | 0.00 | 78 | 1012.1 |
| 20260504191728 | 15 | 253 | 3.2 | 9.7 | 0.00 | 0.00 | 0.00 | 78 | 1012.1 |
| 20260504191628 | 15 | 213 | 3.2 | 11.3 | 0.00 | 0.00 | 0.00 | 78 | 1012.1 |
| 20260504191526 | 15 | 315 | 3.2 | 11.3 | 0.00 | 0.00 | 0.00 | 78 | 1012.0 |
| 20260504191422 | 15 | 269 | 3.2 | 11.3 | 0.00 | 0.00 | 0.00 | 78 | 1012.0 |
| 20260504191320 | 15 | 233 | 3.2 | 11.3 | 0.00 | 0.00 | 0.00 | 78 | 1012.0 |
| 20260504191220 | 15 | 50 | 3.2 | 11.3 | 0.00 | 0.00 | 0.00 | 78 | 1012.0 |
| 20260504191120 | 15 | 333 | 3.2 | 11.3 | 0.00 | 0.00 | 0.00 | 78 | 1012.1 |
| 20260504191020 | 15 | 284 | 3.2 | 11.3 | 0.00 | 0.00 | 0.00 | 78 | 1012.0 |
| 20260504190914 | 15 | 227 | 3.2 | 11.3 | 0.00 | 0.00 | 0.00 | 79 | 1012.1 |
| 20260504190815 | 15 | 292 | 3.2 | 11.3 | 0.00 | 0.00 | 0.00 | 79 | 1012.0 |
| 20260504190713 | 15 | 236 | 3.2 | 11.3 | 0.00 | 0.00 | 0.00 | 79 | 1012.0 |
| 20260504190613 | 15 | 215 | 3.2 | 9.7 | 0.00 | 0.00 | 0.00 | 79 | 1012.0 |
| 20260504190514 | 15 | 259 | 3.2 | 9.7 | 0.00 | 0.00 | 0.00 | 79 | 1012.0 |
| 20260504190408 | 15 | 112 | 3.2 | 9.7 | 0.00 | 0.00 | 0.00 | 79 | 1012.0 |
| 20260504190307 | 15 | 242 | 3.2 | 9.7 | 0.00 | 0.00 | 0.00 | 79 | 1012.0 |
| 20260504190207 | 15 | 195 | 3.2 | 9.7 | 0.00 | 0.00 | 0.00 | 79 | 1012.0 |
| 20260504190108 | 15 | 195 | 3.2 | 9.7 | 0.00 | 0.00 | 0.00 | 79 | 1012.0 |
| 20260504190008 | 15 | 232 | 3.2 | 9.7 | 0.00 | 0.00 | 0.00 | 79 | 1012.0 |
| 20260504185903 | 15 | 232 | 3.2 | 8.0 | 0.00 | 0.00 | 0.00 | 79 | 1012.0 |
| 20260504185802 | 15 | 205 | 3.2 | 8.0 | 0.00 | 0.00 | 0.00 | 79 | 1012.0 |
| 20260504185752 | 15 | 190 | 3.2 | 8.0 | 0.00 | 0.00 | 0.00 | 79 | 1012.0 |
| 20260504185602 | 15 | 121 | 3.2 | 8.0 | 0.00 | 0.00 | 0.00 | 79 | 1012.0 |
| 20260504185502 | 15 | 147 | 3.2 | 8.0 | 0.00 | 0.00 | 0.00 | 79 | 1012.0 |
| 20260504185358 | 15 | 185 | 3.2 | 17.7 | 0.00 | 0.00 | 0.00 | 79 | 1012.0 |
| 20260504185258 | 15 | 67 | 3.2 | 17.7 | 0.00 | 0.00 | 0.00 | 79 | 1012.0 |
| 20260504185058 | 15 | 183 | 3.2 | 17.7 | 0.00 | 0.00 | 0.00 | 79 | 1012.0 |
| 20260504184956 | 15 | 203 | 3.2 | 17.7 | 0.00 | 0.00 | 0.00 | 79 | 1012.0 |
| 20260504184850 | 15 | 180 | 3.2 | 17.7 | 0.00 | 0.00 | 0.00 | 80 | 1012.0 |
| 20260504184749 | 15 | 163 | 3.2 | 17.7 | 0.00 | 0.00 | 0.00 | 80 | 1012.0 |
| 20260504184649 | 15 | 87 | 3.2 | 17.7 | 0.00 | 0.00 | 0.00 | 80 | 1012.0 |
| 20260504184549 | 15 | 194 | 3.2 | 17.7 | 0.00 | 0.00 | 0.00 | 80 | 1012.0 |
| 20260504184449 | 15 | 130 | 3.2 | 17.7 | 0.00 | 0.00 | 0.00 | 80 | 1011.9 |
| 20260504184344 | 15 | 284 | 3.2 | 6.4 | 0.00 | 0.00 | 0.00 | 80 | 1012.0 |
| 20260504184244 | 15 | 153 | 3.2 | 6.4 | 0.00 | 0.00 | 0.00 | 80 | 1012.0 |
| 20260504184043 | 15 | 140 | 3.2 | 6.4 | 0.00 | 0.00 | 0.00 | 80 | 1012.0 |
| 20260504183943 | 15 | 167 | 3.2 | 12.9 | 0.00 | 0.00 | 0.00 | 80 | 1012.0 |
| 20260504183838 | 15 | 184 | 3.2 | 12.9 | 0.00 | 0.00 | 0.00 | 80 | 1012.0 |
| 20260504183738 | 15 | 178 | 3.2 | 12.9 | 0.00 | 0.00 | 0.00 | 80 | 1012.0 |
| 20260504183638 | 15 | 159 | 3.2 | 12.9 | 0.00 | 0.00 | 0.00 | 80 | 1012.0 |
| 20260504183535 | 15 | 134 | 3.2 | 12.9 | 0.00 | 0.00 | 0.00 | 80 | 1012.0 |
| 20260504183435 | 15 | 136 | 3.2 | 12.9 | 0.00 | 0.00 | 0.00 | 80 | 1012.1 |
| 20260504183330 | 15 | 317 | 3.2 | 12.9 | 0.00 | 0.00 | 0.00 | 80 | 1012.0 |
| 20260504183230 | 15 | 317 | 3.2 | 12.9 | 0.00 | 0.00 | 0.00 | 80 | 1012.0 |
| 20260504183130 | 15 | 298 | 3.2 | 12.9 | 0.00 | 0.00 | 0.00 | 80 | 1012.0 |
| 20260504183030 | 15 | 224 | 3.2 | 12.9 | 0.00 | 0.00 | 0.00 | 80 | 1012.0 |
| 20260504182930 | 14 | 234 | 3.2 | 16.1 | 0.00 | 0.00 | 0.00 | 80 | 1012.0 |
| 20260504182825 | 14 | 297 | 3.2 | 16.1 | 0.00 | 0.00 | 0.00 | 80 | 1012.0 |
| 20260504182724 | 14 | 123 | 3.2 | 16.1 | 0.00 | 0.00 | 0.00 | 80 | 1012.0 |
| 20260504182624 | 15 | 146 | 3.2 | 16.1 | 0.00 | 0.00 | 0.00 | 80 | 1012.0 |
| 20260504182524 | 15 | 225 | 3.2 | 16.1 | 0.00 | 0.00 | 0.00 | 80 | 1012.0 |
| 20260504182424 | 15 | 121 | 3.2 | 16.1 | 0.00 | 0.00 | 0.00 | 80 | 1012.1 |
| 20260504182318 | 15 | 163 | 3.2 | 16.1 | 0.00 | 0.00 | 0.00 | 80 | 1012.1 |
| 20260504182218 | 15 | 327 | 3.2 | 16.1 | 0.00 | 0.00 | 0.00 | 80 | 1012.0 |
| 20260504182018 | 15 | 207 | 3.2 | 16.1 | 0.00 | 0.00 | 0.00 | 81 | 1012.0 |
| 20260504181918 | 15 | 172 | 3.2 | 9.7 | 0.00 | 0.00 | 0.00 | 81 | 1012.0 |
| 20260504181811 | 15 | 171 | 3.2 | 6.4 | 0.00 | 0.00 | 0.00 | 81 | 1012.1 |
| 20260504181711 | 15 | 333 | 3.2 | 6.4 | 0.00 | 0.00 | 0.00 | 81 | 1012.0 |
| 20260504181611 | 15 | 320 | 3.2 | 6.4 | 0.00 | 0.00 | 0.00 | 81 | 1012.0 |
| 20260504181512 | 15 | 198 | 3.2 | 6.4 | 0.00 | 0.00 | 0.00 | 80 | 1012.0 |
| 20260504181412 | 15 | 96 | 3.2 | 6.4 | 0.00 | 0.00 | 0.00 | 81 | 1011.9 |
| 20260504181310 | 15 | 36 | 3.2 | 6.4 | 0.00 | 0.00 | 0.00 | 81 | 1011.9 |
| 20260504181210 | 15 | 142 | 3.2 | 6.4 | 0.00 | 0.00 | 0.00 | 81 | 1011.9 |
| 20260504181110 | 15 | 252 | 3.2 | 6.4 | 0.00 | 0.00 | 0.00 | 81 | 1011.9 |
| 20260504181010 | 15 | 191 | 3.2 | 6.4 | 0.00 | 0.00 | 0.00 | 81 | 1011.9 |
| 20260504180909 | 15 | 175 | 3.2 | 6.4 | 0.00 | 0.00 | 0.00 | 81 | 1011.8 |
| 20260504180809 | 15 | 177 | 1.6 | 6.4 | 0.00 | 0.00 | 0.00 | 81 | 1011.9 |
| 20260504180710 | 15 | 197 | 1.6 | 6.4 | 0.00 | 0.00 | 0.00 | 81 | 1011.9 |
| 20260504180609 | 15 | 120 | 1.6 | 6.4 | 0.00 | 0.00 | 0.00 | 81 | 1011.9 |
| 20260504180510 | 15 | 101 | 1.6 | 9.7 | 0.00 | 0.00 | 0.00 | 82 | 1011.9 |
| 20260504180409 | 15 | 242 | 3.2 | 9.7 | 0.00 | 0.00 | 0.00 | 82 | 1011.9 |
| 20260504180308 | 15 | 165 | 3.2 | 9.7 | 0.00 | 0.00 | 0.00 | 82 | 1011.9 |
| 20260504180246 | 14 | 190 | 1.6 | 9.7 | 0.00 | 0.00 | 0.00 | 82 | 1011.8 |
| 20260504180107 | 14 | 146 | 1.6 | 9.7 | 0.00 | 0.00 | 0.00 | 82 | 1011.8 |
| 20260504180008 | 14 | 317 | 1.6 | 9.7 | 0.00 | 0.00 | 0.00 | 82 | 1011.8 |
| 20260504175907 | 14 | 181 | 3.2 | 9.7 | 0.00 | 0.00 | 0.00 | 82 | 1011.8 |
| 20260504175811 | 14 | 261 | 3.2 | 9.7 | 0.00 | 0.00 | 0.00 | 82 | 1011.8 |
| 20260504175707 | 14 | 182 | 3.2 | 9.7 | 0.00 | 0.00 | 0.00 | 82 | 1011.8 |
| 20260504175604 | 14 | 148 | 3.2 | 9.7 | 0.00 | 0.00 | 0.00 | 82 | 1011.8 |
| 20260504175504 | 14 | 180 | 3.2 | 8.0 | 0.00 | 0.00 | 0.00 | 82 | 1011.7 |
| 20260504175405 | 14 | 180 | 3.2 | 8.0 | 0.00 | 0.00 | 0.00 | 82 | 1011.7 |
| 20260504175304 | 14 | 152 | 3.2 | 8.0 | 0.00 | 0.00 | 0.00 | 82 | 1011.7 |
| 20260504175202 | 14 | 182 | 3.2 | 8.0 | 0.00 | 0.00 | 0.00 | 82 | 1011.7 |
| 20260504175100 | 14 | 132 | 3.2 | 8.0 | 0.00 | 0.00 | 0.00 | 82 | 1011.7 |
| 20260504175000 | 14 | 252 | 3.2 | 9.7 | 0.00 | 0.00 | 0.00 | 82 | 1011.7 |
| 20260504174859 | 14 | 61 | 3.2 | 9.7 | 0.00 | 0.00 | 0.00 | 82 | 1011.7 |
| 20260504174759 | 14 | 320 | 3.2 | 9.7 | 0.00 | 0.00 | 0.00 | 83 | 1011.7 |
| 20260504174659 | 14 | 217 | 3.2 | 9.7 | 0.00 | 0.00 | 0.00 | 83 | 1011.7 |
| 20260504174600 | 14 | 67 | 3.2 | 9.7 | 0.00 | 0.00 | 0.00 | 83 | 1011.7 |
| 20260504174458 | 14 | 91 | 3.2 | 9.7 | 0.00 | 0.00 | 0.00 | 83 | 1011.7 |
| 20260504174358 | 14 | 182 | 3.2 | 9.7 | 0.00 | 0.00 | 0.00 | 83 | 1011.7 |
| 20260504174258 | 14 | 182 | 3.2 | 9.7 | 0.00 | 0.00 | 0.00 | 83 | 1011.7 |
| 20260504174158 | 14 | 134 | 1.6 | 9.7 | 0.00 | 0.00 | 0.00 | 83 | 1011.7 |
| 20260504174058 | 14 | 294 | 1.6 | 9.7 | 0.00 | 0.00 | 0.00 | 83 | 1011.7 |
| 20260504173958 | 14 | 199 | 1.6 | 6.4 | 0.00 | 0.00 | 0.00 | 83 | 1011.7 |
| 20260504173853 | 14 | 346 | 1.6 | 6.4 | 0.00 | 0.00 | 0.00 | 83 | 1011.7 |
| 20260504173754 | 14 | 301 | 1.6 | 6.4 | 0.00 | 0.00 | 0.00 | 83 | 1011.7 |
| 20260504173653 | 14 | 269 | 3.2 | 6.4 | 0.00 | 0.00 | 0.00 | 83 | 1011.7 |
| 20260504173553 | 14 | 348 | 3.2 | 6.4 | 0.00 | 0.00 | 0.00 | 83 | 1011.7 |
| 20260504173453 | 14 | 180 | 1.6 | 6.4 | 0.00 | 0.00 | 0.00 | 83 | 1011.7 |
| 20260504173354 | 14 | 151 | 1.6 | 6.4 | 0.00 | 0.00 | 0.00 | 83 | 1011.7 |
| 20260504173254 | 14 | 156 | 1.6 | 6.4 | 0.00 | 0.00 | 0.00 | 83 | 1011.7 |
| 20260504173154 | 14 | 156 | 3.2 | 6.4 | 0.00 | 0.00 | 0.00 | 83 | 1011.7 |
| 20260504173054 | 14 | 156 | 3.2 | 6.4 | 0.00 | 0.00 | 0.00 | 83 | 1011.7 |
| 20260504172954 | 14 | 163 | 3.2 | 6.4 | 0.00 | 0.00 | 0.00 | 83 | 1011.7 |
| 20260504172854 | 14 | 216 | 3.2 | 6.4 | 0.00 | 0.00 | 0.00 | 84 | 1011.6 |
| 20260504172754 | 14 | 292 | 3.2 | 8.0 | 0.00 | 0.00 | 0.00 | 84 | 1011.6 |
| 20260504172654 | 14 | 188 | 3.2 | 8.0 | 0.00 | 0.00 | 0.00 | 84 | 1011.6 |
| 20260504172553 | 14 | 235 | 3.2 | 8.0 | 0.00 | 0.00 | 0.00 | 84 | 1011.7 |
| 20260504172453 | 14 | 182 | 3.2 | 8.0 | 0.00 | 0.00 | 0.00 | 84 | 1011.6 |
| 20260504172353 | 14 | 182 | 3.2 | 8.0 | 0.00 | 0.00 | 0.00 | 84 | 1011.7 |
| 20260504172253 | 14 | 161 | 3.2 | 9.7 | 0.00 | 0.00 | 0.00 | 84 | 1011.6 |
| 20260504172155 | 14 | 161 | 3.2 | 9.7 | 0.00 | 0.00 | 0.00 | 84 | 1011.7 |
| 20260504172054 | 14 | 168 | 3.2 | 9.7 | 0.00 | 0.00 | 0.00 | 84 | 1011.6 |
| 20260504171950 | 14 | 167 | 3.2 | 9.7 | 0.00 | 0.00 | 0.00 | 84 | 1011.7 |
| 20260504171849 | 14 | 256 | 3.2 | 9.7 | 0.00 | 0.00 | 0.00 | 84 | 1011.7 |
| 20260504171749 | 14 | 210 | 3.2 | 9.7 | 0.00 | 0.00 | 0.00 | 84 | 1011.6 |
| 20260504171549 | 14 | 101 | 3.2 | 9.7 | 0.00 | 0.00 | 0.00 | 84 | 1011.7 |
| 20260504171449 | 14 | 208 | 1.6 | 9.7 | 0.00 | 0.00 | 0.00 | 84 | 1011.7 |
| 20260504171349 | 14 | 165 | 1.6 | 9.7 | 0.00 | 0.00 | 0.00 | 84 | 1011.7 |
| 20260504171249 | 14 | 172 | 3.2 | 6.4 | 0.00 | 0.00 | 0.00 | 85 | 1011.7 |
| 20260504171149 | 13 | 163 | 3.2 | 12.9 | 0.00 | 0.00 | 0.00 | 85 | 1011.6 |
| 20260504171049 | 13 | 171 | 3.2 | 12.9 | 0.00 | 0.00 | 0.00 | 85 | 1011.7 |
| 20260504170949 | 13 | 175 | 3.2 | 12.9 | 0.00 | 0.00 | 0.00 | 85 | 1011.7 |
| 20260504170849 | 13 | 175 | 3.2 | 12.9 | 0.00 | 0.00 | 0.00 | 85 | 1011.6 |
| 20260504170749 | 13 | 164 | 3.2 | 12.9 | 0.00 | 0.00 | 0.00 | 85 | 1011.6 |
| 20260504170550 | 13 | 204 | 3.2 | 12.9 | 0.00 | 0.00 | 0.00 | 85 | 1011.6 |
| 20260504170450 | 13 | 186 | 3.2 | 12.9 | 0.00 | 0.00 | 0.00 | 85 | 1011.6 |
| 20260504170350 | 13 | 209 | 3.2 | 12.9 | 0.00 | 0.00 | 0.00 | 85 | 1011.6 |
| 20260504170250 | 13 | 164 | 1.6 | 12.9 | 0.00 | 0.00 | 0.00 | 85 | 1011.7 |
| 20260504160426 | 13 | 196 | 1.6 | 6.4 | 0.00 | 0.00 | 0.00 | 87 | 1011.1 |
| 20260504160326 | 13 | 347 | 1.6 | 6.4 | 0.00 | 0.00 | 0.00 | 87 | 1011.1 |
| 20260504160225 | 13 | 213 | 1.6 | 6.4 | 0.00 | 0.00 | 0.00 | 88 | 1011.2 |
| 20260504151020 | 12 | 177 | 3.2 | 16.1 | 0.00 | 0.00 | 0.00 | 89 | 1010.8 |
| 20260504150917 | 12 | 46 | 3.2 | 16.1 | 0.00 | 0.00 | 0.00 | 89 | 1010.7 |
| 20260504150815 | 12 | 171 | 3.2 | 16.1 | 0.00 | 0.00 | 0.00 | 89 | 1010.8 |
| 20260504150729 | 12 | 182 | 3.2 | 16.1 | 0.00 | 0.00 | 0.00 | 89 | 1010.7 |
| 20260504150614 | 12 | 183 | 3.2 | 16.1 | 0.00 | 0.00 | 0.00 | 89 | 1010.7 |
| 20260504150511 | 12 | 192 | 3.2 | 16.1 | 0.00 | 0.00 | 0.00 | 89 | 1010.7 |
| 20260504150406 | 12 | 247 | 3.2 | 16.1 | 0.00 | 0.00 | 0.00 | 89 | 1010.7 |
| 20260504150306 | 12 | 177 | 3.2 | 16.1 | 0.00 | 0.00 | 0.00 | 89 | 1010.7 |
| 20260504150206 | 12 | 177 | 3.2 | 16.1 | 0.00 | 0.00 | 0.00 | 89 | 1010.6 |
| 20260504150106 | 12 | 206 | 3.2 | 6.4 | 0.00 | 0.00 | 0.00 | 89 | 1010.6 |
| 20260504141304 | 12 | 180 | 1.6 | 9.7 | 0.00 | 0.00 | 0.00 | 90 | 1010.3 |
| 20260504141204 | 12 | 192 | 1.6 | 9.7 | 0.00 | 0.00 | 0.00 | 90 | 1010.3 |
| 20260504141152 | 12 | 206 | 3.2 | 9.7 | 0.00 | 0.00 | 0.00 | 90 | 1010.2 |
| 20260504141004 | 12 | 51 | 3.2 | 9.7 | 0.00 | 0.00 | 0.00 | 90 | 1010.4 |
| 20260504140904 | 12 | 176 | 3.2 | 8.0 | 0.00 | 0.00 | 0.00 | 90 | 1010.3 |
| 20260504140759 | 12 | 155 | 1.6 | 8.0 | 0.00 | 0.00 | 0.00 | 90 | 1010.3 |
| 20260504140658 | 12 | 174 | 1.6 | 8.0 | 0.00 | 0.00 | 0.00 | 90 | 1010.2 |
| 20260504140559 | 12 | 121 | 1.6 | 8.0 | 0.00 | 0.00 | 0.00 | 90 | 1010.2 |
| 20260504140459 | 12 | 184 | 1.6 | 8.0 | 0.00 | 0.00 | 0.00 | 90 | 1010.2 |
| 20260504140358 | 12 | 123 | 1.6 | 8.0 | 0.00 | 0.00 | 0.00 | 90 | 1010.2 |
| 20260504140256 | 12 | 123 | 1.6 | 8.0 | 0.00 | 0.00 | 0.00 | 90 | 1010.2 |
| 20260504140152 | 12 | 88 | 1.6 | 8.0 | 0.00 | 0.00 | 0.00 | 90 | 1010.2 |
| 20260504140140 | 12 | 121 | 1.6 | 8.0 | 0.00 | 0.00 | 0.00 | 90 | 1010.1 |
| 20260504130752 | 12 | 175 | 1.6 | 12.9 | 0.00 | 0.00 | 0.00 | 90 | 1009.7 |
| 20260504130650 | 12 | 175 | 1.6 | 12.9 | 0.00 | 0.00 | 0.00 | 90 | 1009.7 |
| 20260504130551 | 12 | 126 | 1.6 | 12.9 | 0.00 | 0.00 | 0.00 | 90 | 1009.7 |
| 20260504130450 | 12 | 109 | 1.6 | 12.9 | 0.00 | 0.00 | 0.00 | 90 | 1009.7 |
| 20260504130349 | 12 | 109 | 1.6 | 12.9 | 0.00 | 0.00 | 0.00 | 90 | 1009.7 |
| 20260504130246 | 12 | 109 | 3.2 | 12.9 | 0.00 | 0.00 | 0.00 | 90 | 1009.7 |
| 20260504130143 | 12 | 205 | 3.2 | 12.9 | 0.00 | 0.00 | 0.00 | 90 | 1009.7 |
| 20260504120234 | 12 | 202 | 3.2 | 8.0 | 0.00 | 0.00 | 0.00 | 90 | 1009.4 |
| 20260504120134 | 12 | 161 | 3.2 | 8.0 | 0.00 | 0.00 | 0.00 | 90 | 1009.4 |
| 20260504110628 | 12 | 211 | 3.2 | 6.4 | 0.00 | 0.00 | 0.00 | 89 | 1009.0 |
| 20260504110528 | 12 | 151 | 3.2 | 6.4 | 0.00 | 0.00 | 0.00 | 89 | 1009.0 |
| 20260504110423 | 12 | 159 | 3.2 | 12.9 | 0.00 | 0.00 | 0.00 | 89 | 1008.9 |
| 20260504110324 | 12 | 178 | 3.2 | 12.9 | 0.00 | 0.00 | 0.00 | 89 | 1008.9 |
| 20260504110223 | 12 | 322 | 3.2 | 12.9 | 0.00 | 0.00 | 0.00 | 89 | 1009.0 |
| 20260504110123 | 12 | 200 | 3.2 | 16.1 | 0.00 | 0.00 | 0.00 | 89 | 1008.9 |
| 20260504100515 | 11 | 182 | 3.2 | 8.0 | 0.00 | 0.00 | 0.00 | 88 | 1008.6 |
| 20260504100415 | 11 | 173 | 3.2 | 8.0 | 0.00 | 0.00 | 0.00 | 88 | 1008.6 |
| 20260504100310 | 11 | 226 | 3.2 | 9.7 | 0.00 | 0.00 | 0.00 | 88 | 1008.6 |
| 20260504100209 | 11 | 213 | 3.2 | 9.7 | 0.00 | 0.00 | 0.00 | 88 | 1008.6 |
| 20260504081928 | 11 | 270 | 0.0 | 0.0 | 0.00 | 0.00 | 0.00 | 84 | 1007.4 |
| 20260504081828 | 11 | 270 | 0.0 | 0.0 | 0.00 | 0.00 | 0.00 | 84 | 1007.5 |
| 20260504081728 | 11 | 270 | 0.0 | 0.0 | 0.00 | 0.00 | 0.00 | 84 | 1007.4 |
| 20260504081628 | 11 | 270 | 0.0 | 0.0 | 0.00 | 0.00 | 0.00 | 84 | 1007.4 |
| 20260504081528 | 11 | 270 | 0.0 | 0.0 | 0.00 | 0.00 | 0.00 | 83 | 1007.4 |
| 20260504081428 | 11 | 270 | 0.0 | 0.0 | 0.00 | 0.00 | 0.00 | 84 | 1007.4 |
| 20260504081328 | 11 | 270 | 0.0 | 0.0 | 0.00 | 0.00 | 0.00 | 84 | 1007.4 |
| 20260504081228 | 11 | 270 | 0.0 | 0.0 | 0.00 | 0.00 | 0.00 | 84 | 1007.4 |
| 20260504081128 | 11 | 270 | 0.0 | 0.0 | 0.00 | 0.00 | 0.00 | 84 | 1007.4 |
| 20260504081028 | 11 | 270 | 0.0 | 0.0 | 0.00 | 0.00 | 0.00 | 83 | 1007.5 |
| 20260504080923 | 11 | 270 | 0.0 | 0.0 | 0.00 | 0.00 | 0.00 | 83 | 1007.4 |
| 20260504080823 | 11 | 270 | 0.0 | 0.0 | 0.00 | 0.00 | 0.00 | 83 | 1007.4 |
| 20260504080723 | 11 | 270 | 0.0 | 0.0 | 0.00 | 0.00 | 0.00 | 83 | 1007.3 |
| 20260504080623 | 11 | 270 | 0.0 | 0.0 | 0.00 | 0.00 | 0.00 | 83 | 1007.4 |
| 20260504080523 | 11 | 270 | 0.0 | 0.0 | 0.00 | 0.00 | 0.00 | 83 | 1007.4 |
| 20260504080424 | 11 | 270 | 0.0 | 0.0 | 0.00 | 0.00 | 0.00 | 83 | 1007.4 |
| 20260504080323 | 11 | 270 | 0.0 | 0.0 | 0.00 | 0.00 | 0.00 | 83 | 1007.4 |
| 20260504080223 | 11 | 270 | 0.0 | 0.0 | 0.00 | 0.00 | 0.00 | 83 | 1007.4 |
| 20260504080123 | 11 | 270 | 0.0 | 0.0 | 0.00 | 0.00 | 0.00 | 83 | 1007.4 |
| 20260504070335 | 13 | 9 | 0.0 | 3.2 | 0.00 | 0.00 | 0.00 | 81 | 1007.5 |
| 20260504070235 | 13 | 9 | 0.0 | 3.2 | 0.00 | 0.00 | 0.00 | 81 | 1007.5 |
| 20260504070132 | 13 | 9 | 0.0 | 3.2 | 0.00 | 0.00 | 0.00 | 81 | 1007.5 |
| 20260504060218 | 13 | 254 | 1.6 | 6.4 | 0.00 | 0.00 | 0.00 | 80 | 1007.5 |
| 20260504060118 | 13 | 254 | 1.6 | 4.8 | 0.00 | 0.00 | 0.00 | 80 | 1007.5 |
| 20260504050737 | 13 | 264 | 6.4 | 17.7 | 0.00 | 0.00 | 0.00 | 81 | 1007.4 |
| 20260504050644 | 13 | 273 | 6.4 | 17.7 | 0.00 | 0.00 | 0.00 | 81 | 1007.4 |
| 20260504050634 | 13 | 259 | 6.4 | 17.7 | 0.00 | 0.00 | 0.00 | 81 | 1007.4 |
| 20260504050432 | 13 | 243 | 6.4 | 17.7 | 0.00 | 0.00 | 0.00 | 81 | 1007.4 |
| 20260504050332 | 13 | 268 | 6.4 | 17.7 | 0.00 | 0.00 | 0.00 | 81 | 1007.4 |
| 20260504050232 | 13 | 267 | 6.4 | 17.7 | 0.00 | 0.00 | 0.00 | 81 | 1007.4 |
| 20260504050139 | 14 | 264 | 6.4 | 17.7 | 0.00 | 0.00 | 0.00 | 81 | 1007.4 |
| 20260504050024 | 13 | 229 | 6.4 | 17.7 | 0.00 | 0.00 | 0.00 | 81 | 1007.4 |
| 20260504045923 | 14 | 237 | 6.4 | 11.3 | 0.00 | 0.00 | 0.00 | 81 | 1007.4 |
| 20260504045823 | 14 | 257 | 6.4 | 11.3 | 0.00 | 0.00 | 0.00 | 81 | 1007.4 |
| 20260504045724 | 13 | 273 | 6.4 | 11.3 | 0.00 | 0.00 | 0.00 | 81 | 1007.4 |
| 20260504045623 | 14 | 264 | 8.0 | 11.3 | 0.00 | 0.00 | 0.00 | 81 | 1007.5 |
| 20260504045517 | 14 | 234 | 6.4 | 11.3 | 0.00 | 0.00 | 0.00 | 81 | 1007.4 |
| 20260504045417 | 14 | 240 | 8.0 | 11.3 | 0.00 | 0.00 | 0.00 | 81 | 1007.4 |
| 20260504045317 | 14 | 277 | 8.0 | 14.5 | 0.00 | 0.00 | 0.00 | 81 | 1007.4 |
| 20260504045218 | 14 | 232 | 8.0 | 14.5 | 0.00 | 0.00 | 0.00 | 81 | 1007.4 |
| 20260504045117 | 14 | 260 | 8.0 | 14.5 | 0.00 | 0.00 | 0.00 | 81 | 1007.4 |
| 20260504045011 | 14 | 251 | 8.0 | 14.5 | 0.00 | 0.00 | 0.00 | 81 | 1007.3 |
| 20260504044911 | 14 | 256 | 8.0 | 14.5 | 0.00 | 0.00 | 0.00 | 81 | 1007.3 |
| 20260504044811 | 14 | 259 | 8.0 | 16.1 | 0.00 | 0.00 | 0.00 | 81 | 1007.3 |
| 20260504044712 | 14 | 278 | 8.0 | 16.1 | 0.00 | 0.00 | 0.00 | 81 | 1007.3 |
| 20260504044610 | 14 | 277 | 8.0 | 16.1 | 0.00 | 0.00 | 0.00 | 81 | 1007.4 |
| 20260504044505 | 14 | 232 | 8.0 | 16.1 | 0.00 | 0.00 | 0.00 | 81 | 1007.4 |
| 20260504044405 | 14 | 282 | 8.0 | 16.1 | 0.00 | 0.00 | 0.00 | 81 | 1007.3 |
| 20260504044305 | 14 | 257 | 8.0 | 16.1 | 0.00 | 0.00 | 0.00 | 81 | 1007.3 |
| 20260504044205 | 14 | 259 | 8.0 | 16.1 | 0.00 | 0.00 | 0.00 | 81 | 1007.3 |
| 20260504044104 | 14 | 229 | 8.0 | 16.1 | 0.00 | 0.00 | 0.00 | 81 | 1007.3 |
| 20260504043959 | 14 | 279 | 8.0 | 16.1 | 0.00 | 0.00 | 0.00 | 81 | 1007.3 |
| 20260504043859 | 14 | 241 | 8.0 | 16.1 | 0.00 | 0.00 | 0.00 | 81 | 1007.3 |
| 20260504043800 | 14 | 270 | 8.0 | 16.1 | 0.00 | 0.00 | 0.00 | 81 | 1007.3 |
| 20260504043658 | 14 | 231 | 8.0 | 16.1 | 0.00 | 0.00 | 0.00 | 81 | 1007.3 |
| 20260504043559 | 14 | 262 | 8.0 | 16.1 | 0.00 | 0.00 | 0.00 | 81 | 1007.3 |
| 20260504043452 | 14 | 246 | 8.0 | 16.1 | 0.00 | 0.00 | 0.00 | 81 | 1007.3 |
| 20260504043354 | 14 | 264 | 8.0 | 16.1 | 0.00 | 0.00 | 0.00 | 81 | 1007.3 |
| 20260504043254 | 14 | 285 | 8.0 | 14.5 | 0.00 | 0.00 | 0.00 | 81 | 1007.3 |
| 20260504043154 | 14 | 257 | 8.0 | 14.5 | 0.00 | 0.00 | 0.00 | 81 | 1007.3 |
| 20260504043132 | 14 | 246 | 8.0 | 14.5 | 0.00 | 0.00 | 0.00 | 81 | 1007.3 |
| 20260504042947 | 14 | 241 | 8.0 | 14.5 | 0.00 | 0.00 | 0.00 | 81 | 1007.3 |
| 20260504042847 | 14 | 289 | 8.0 | 14.5 | 0.00 | 0.00 | 0.00 | 81 | 1007.3 |
| 20260504042748 | 14 | 260 | 8.0 | 14.5 | 0.00 | 0.00 | 0.00 | 81 | 1007.3 |
| 20260504042648 | 14 | 244 | 8.0 | 14.5 | 0.00 | 0.00 | 0.00 | 81 | 1007.3 |
| 20260504042547 | 14 | 275 | 8.0 | 14.5 | 0.00 | 0.00 | 0.00 | 81 | 1007.3 |
| 20260504042443 | 14 | 263 | 8.0 | 14.5 | 0.00 | 0.00 | 0.00 | 81 | 1007.3 |
| 20260504042341 | 14 | 285 | 8.0 | 14.5 | 0.00 | 0.00 | 0.00 | 81 | 1007.3 |
| 20260504042241 | 14 | 268 | 8.0 | 14.5 | 0.00 | 0.00 | 0.00 | 81 | 1007.3 |
| 20260504042141 | 14 | 229 | 8.0 | 14.5 | 0.00 | 0.00 | 0.00 | 81 | 1007.2 |
| 20260504042041 | 14 | 254 | 8.0 | 14.5 | 0.00 | 0.00 | 0.00 | 81 | 1007.2 |
| 20260504041935 | 14 | 263 | 8.0 | 14.5 | 0.00 | 0.00 | 0.00 | 81 | 1007.3 |
| 20260504041835 | 14 | 269 | 8.0 | 14.5 | 0.00 | 0.00 | 0.00 | 81 | 1007.2 |
| 20260504041735 | 14 | 259 | 8.0 | 14.5 | 0.00 | 0.00 | 0.00 | 81 | 1007.3 |
| 20260504041635 | 14 | 253 | 8.0 | 14.5 | 0.00 | 0.00 | 0.00 | 81 | 1007.2 |
| 20260504041535 | 14 | 242 | 8.0 | 12.9 | 0.00 | 0.00 | 0.00 | 81 | 1007.3 |
| 20260504041429 | 14 | 241 | 8.0 | 12.9 | 0.00 | 0.00 | 0.00 | 81 | 1007.3 |
| 20260504041328 | 14 | 238 | 8.0 | 12.9 | 0.00 | 0.00 | 0.00 | 80 | 1007.3 |
| 20260504041229 | 14 | 244 | 8.0 | 12.9 | 0.00 | 0.00 | 0.00 | 80 | 1007.2 |
| 20260504041141 | 14 | 250 | 8.0 | 12.9 | 0.00 | 0.00 | 0.00 | 80 | 1007.3 |
| 20260504041131 | 14 | 220 | 8.0 | 12.9 | 0.00 | 0.00 | 0.00 | 80 | 1007.3 |
| 20260504040921 | 14 | 247 | 8.0 | 12.9 | 0.00 | 0.00 | 0.00 | 80 | 1007.2 |
| 20260504040821 | 14 | 266 | 8.0 | 12.9 | 0.00 | 0.00 | 0.00 | 80 | 1007.3 |
| 20260504040721 | 14 | 247 | 8.0 | 12.9 | 0.00 | 0.00 | 0.00 | 80 | 1007.3 |
| 20260504040621 | 14 | 261 | 8.0 | 12.9 | 0.00 | 0.00 | 0.00 | 80 | 1007.3 |
| 20260504040415 | 14 | 249 | 8.0 | 14.5 | 0.00 | 0.00 | 0.00 | 80 | 1007.2 |
| 20260504040315 | 14 | 265 | 8.0 | 14.5 | 0.00 | 0.00 | 0.00 | 80 | 1007.2 |
| 20260504040215 | 14 | 267 | 8.0 | 14.5 | 0.00 | 0.00 | 0.00 | 80 | 1007.2 |
| 20260504040115 | 14 | 265 | 8.0 | 14.5 | 0.00 | 0.00 | 0.00 | 80 | 1007.2 |
| 20260504035909 | 14 | 271 | 9.7 | 16.1 | 0.00 | 0.00 | 0.00 | 79 | 1007.2 |
| 20260504035809 | 14 | 254 | 9.7 | 16.1 | 0.00 | 0.00 | 0.00 | 79 | 1007.2 |
| 20260504035709 | 14 | 260 | 8.0 | 16.1 | 0.00 | 0.00 | 0.00 | 79 | 1007.2 |
| 20260504035623 | 14 | 279 | 8.0 | 16.1 | 0.00 | 0.00 | 0.00 | 79 | 1007.3 |
| 20260504035613 | 14 | 277 | 8.0 | 16.1 | 0.00 | 0.00 | 0.00 | 79 | 1007.2 |
| 20260504035404 | 15 | 270 | 8.0 | 16.1 | 0.00 | 0.00 | 0.00 | 79 | 1007.3 |
| 20260504035304 | 15 | 302 | 8.0 | 16.1 | 0.00 | 0.00 | 0.00 | 78 | 1007.2 |
| 20260504035203 | 15 | 269 | 8.0 | 16.1 | 0.00 | 0.00 | 0.00 | 78 | 1007.3 |
| 20260504035117 | 15 | 251 | 8.0 | 16.1 | 0.00 | 0.00 | 0.00 | 78 | 1007.2 |
| 20260504035107 | 15 | 247 | 8.0 | 16.1 | 0.00 | 0.00 | 0.00 | 78 | 1007.2 |
| 20260504034901 | 15 | 263 | 9.7 | 16.1 | 0.00 | 0.00 | 0.00 | 78 | 1007.2 |
| 20260504034801 | 15 | 284 | 9.7 | 16.1 | 0.00 | 0.00 | 0.00 | 78 | 1007.2 |
| 20260504034701 | 15 | 281 | 9.7 | 16.1 | 0.00 | 0.00 | 0.00 | 77 | 1007.2 |
| 20260504034559 | 15 | 263 | 9.7 | 16.1 | 0.00 | 0.00 | 0.00 | 77 | 1007.2 |
| 20260504034351 | 15 | 235 | 9.7 | 14.5 | 0.00 | 0.00 | 0.00 | 77 | 1007.1 |
| 20260504034251 | 15 | 250 | 8.0 | 14.5 | 0.00 | 0.00 | 0.00 | 77 | 1007.2 |
| 20260504034151 | 15 | 259 | 8.0 | 14.5 | 0.00 | 0.00 | 0.00 | 77 | 1007.2 |
| 20260504034051 | 15 | 288 | 8.0 | 14.5 | 0.00 | 0.00 | 0.00 | 77 | 1007.2 |
| 20260504033845 | 15 | 252 | 8.0 | 14.5 | 0.00 | 0.00 | 0.00 | 76 | 1007.1 |
| 20260504033746 | 15 | 260 | 8.0 | 14.5 | 0.00 | 0.00 | 0.00 | 76 | 1007.1 |
| 20260504033646 | 15 | 278 | 8.0 | 14.5 | 0.00 | 0.00 | 0.00 | 76 | 1007.2 |
| 20260504033545 | 15 | 275 | 8.0 | 14.5 | 0.00 | 0.00 | 0.00 | 76 | 1007.2 |
| 20260504033339 | 15 | 244 | 8.0 | 17.7 | 0.00 | 0.00 | 0.00 | 76 | 1007.1 |
| 20260504033239 | 15 | 257 | 8.0 | 17.7 | 0.00 | 0.00 | 0.00 | 76 | 1007.1 |
| 20260504033139 | 15 | 250 | 8.0 | 17.7 | 0.00 | 0.00 | 0.00 | 76 | 1007.2 |
| 20260504033039 | 15 | 247 | 8.0 | 17.7 | 0.00 | 0.00 | 0.00 | 76 | 1007.2 |
| 20260504032834 | 15 | 286 | 8.0 | 17.7 | 0.00 | 0.00 | 0.00 | 75 | 1007.2 |
| 20260504032733 | 15 | 252 | 8.0 | 17.7 | 0.00 | 0.00 | 0.00 | 75 | 1007.1 |
| 20260504032633 | 15 | 242 | 8.0 | 17.7 | 0.00 | 0.00 | 0.00 | 75 | 1007.0 |
| 20260504032533 | 15 | 284 | 8.0 | 17.7 | 0.00 | 0.00 | 0.00 | 75 | 1007.1 |
| 20260504032329 | 15 | 259 | 8.0 | 16.1 | 0.00 | 0.00 | 0.00 | 75 | 1007.1 |
| 20260504032229 | 15 | 254 | 8.0 | 16.1 | 0.00 | 0.00 | 0.00 | 75 | 1007.1 |
| 20260504032129 | 15 | 273 | 8.0 | 16.1 | 0.00 | 0.00 | 0.00 | 75 | 1007.0 |
| 20260504032028 | 15 | 262 | 8.0 | 16.1 | 0.00 | 0.00 | 0.00 | 75 | 1007.1 |
| 20260504031821 | 15 | 286 | 8.0 | 16.1 | 0.00 | 0.00 | 0.00 | 75 | 1007.0 |
| 20260504031721 | 15 | 286 | 8.0 | 16.1 | 0.00 | 0.00 | 0.00 | 75 | 1007.0 |
| 20260504031621 | 15 | 276 | 8.0 | 16.1 | 0.00 | 0.00 | 0.00 | 75 | 1007.0 |
| 20260504031521 | 15 | 277 | 8.0 | 16.1 | 0.00 | 0.00 | 0.00 | 75 | 1007.0 |
| 20260504031315 | 15 | 294 | 8.0 | 16.1 | 0.00 | 0.00 | 0.00 | 75 | 1007.0 |
| 20260504031214 | 16 | 296 | 8.0 | 16.1 | 0.00 | 0.00 | 0.00 | 75 | 1007.0 |
| 20260504031115 | 16 | 281 | 8.0 | 16.1 | 0.00 | 0.00 | 0.00 | 75 | 1007.0 |
| 20260504031015 | 16 | 254 | 8.0 | 16.1 | 0.00 | 0.00 | 0.00 | 75 | 1007.0 |
| 20260504030809 | 16 | 266 | 8.0 | 16.1 | 0.00 | 0.00 | 0.00 | 75 | 1007.0 |
| 20260504030709 | 16 | 272 | 8.0 | 16.1 | 0.00 | 0.00 | 0.00 | 75 | 1007.0 |
| 20260504030609 | 16 | 259 | 8.0 | 16.1 | 0.00 | 0.00 | 0.00 | 75 | 1007.0 |
| 20260504030509 | 16 | 256 | 8.0 | 16.1 | 0.00 | 0.00 | 0.00 | 75 | 1007.0 |
| 20260504030303 | 16 | 250 | 8.0 | 16.1 | 0.00 | 0.00 | 0.00 | 75 | 1007.1 |
| 20260504030203 | 16 | 256 | 8.0 | 16.1 | 0.00 | 0.00 | 0.00 | 74 | 1007.0 |
| 20260504030005 | 16 | 278 | 8.0 | 16.1 | 0.00 | 0.00 | 0.00 | 74 | 1007.1 |
| 20260504025759 | 16 | 261 | 8.0 | 16.1 | 0.00 | 0.00 | 0.00 | 74 | 1007.0 |
| 20260504025657 | 16 | 288 | 8.0 | 16.1 | 0.00 | 0.00 | 0.00 | 74 | 1007.1 |
| 20260504025557 | 16 | 265 | 8.0 | 16.1 | 0.00 | 0.00 | 0.00 | 75 | 1007.1 |
| 20260504025457 | 16 | 263 | 8.0 | 16.1 | 0.00 | 0.00 | 0.00 | 75 | 1007.1 |
| 20260504025252 | 16 | 279 | 8.0 | 16.1 | 0.00 | 0.00 | 0.00 | 75 | 1007.1 |
| 20260504025152 | 16 | 292 | 8.0 | 16.1 | 0.00 | 0.00 | 0.00 | 75 | 1007.0 |
| 20260504025051 | 16 | 273 | 8.0 | 16.1 | 0.00 | 0.00 | 0.00 | 75 | 1007.1 |
| 20260504024951 | 16 | 236 | 8.0 | 16.1 | 0.00 | 0.00 | 0.00 | 75 | 1007.1 |
| 20260504024745 | 16 | 239 | 8.0 | 16.1 | 0.00 | 0.00 | 0.00 | 75 | 1007.0 |
| 20260504024645 | 16 | 288 | 8.0 | 16.1 | 0.00 | 0.00 | 0.00 | 75 | 1007.1 |
| 20260504024546 | 16 | 269 | 8.0 | 16.1 | 0.00 | 0.00 | 0.00 | 75 | 1007.1 |
| 20260504024445 | 16 | 245 | 8.0 | 19.3 | 0.00 | 0.00 | 0.00 | 75 | 1007.0 |
| 20260504024239 | 16 | 261 | 8.0 | 19.3 | 0.00 | 0.00 | 0.00 | 75 | 1007.1 |
| 20260504024139 | 16 | 300 | 8.0 | 19.3 | 0.00 | 0.00 | 0.00 | 75 | 1007.0 |
| 20260504024039 | 16 | 275 | 8.0 | 19.3 | 0.00 | 0.00 | 0.00 | 75 | 1007.0 |
| 20260504023953 | 16 | 254 | 8.0 | 19.3 | 0.00 | 0.00 | 0.00 | 75 | 1007.1 |
| 20260504023943 | 17 | 278 | 8.0 | 19.3 | 0.00 | 0.00 | 0.00 | 75 | 1007.0 |
| 20260504023733 | 17 | 277 | 8.0 | 19.3 | 0.00 | 0.00 | 0.00 | 74 | 1007.1 |
| 20260504023633 | 17 | 267 | 8.0 | 19.3 | 0.00 | 0.00 | 0.00 | 74 | 1007.1 |
| 20260504023533 | 17 | 263 | 8.0 | 19.3 | 0.00 | 0.00 | 0.00 | 74 | 1007.1 |
| 20260504023433 | 17 | 309 | 8.0 | 16.1 | 0.00 | 0.00 | 0.00 | 74 | 1007.1 |
| 20260504023231 | 17 | 285 | 8.0 | 16.1 | 0.00 | 0.00 | 0.00 | 74 | 1007.1 |
| 20260504023131 | 17 | 259 | 8.0 | 16.1 | 0.00 | 0.00 | 0.00 | 74 | 1007.0 |
| 20260504023031 | 17 | 240 | 8.0 | 16.1 | 0.00 | 0.00 | 0.00 | 73 | 1007.1 |
| 20260504022929 | 17 | 241 | 8.0 | 16.1 | 0.00 | 0.00 | 0.00 | 73 | 1007.1 |
| 20260504022721 | 17 | 265 | 8.0 | 14.5 | 0.00 | 0.00 | 0.00 | 73 | 1007.1 |
| 20260504022621 | 17 | 273 | 8.0 | 14.5 | 0.00 | 0.00 | 0.00 | 73 | 1007.1 |
| 20260504022521 | 17 | 271 | 8.0 | 14.5 | 0.00 | 0.00 | 0.00 | 73 | 1007.1 |
| 20260504022435 | 17 | 293 | 8.0 | 14.5 | 0.00 | 0.00 | 0.00 | 73 | 1007.1 |
| 20260504022425 | 17 | 279 | 8.0 | 14.5 | 0.00 | 0.00 | 0.00 | 73 | 1007.1 |
| 20260504022215 | 17 | 269 | 8.0 | 14.5 | 0.00 | 0.00 | 0.00 | 73 | 1007.2 |
| 20260504022115 | 17 | 265 | 8.0 | 14.5 | 0.00 | 0.00 | 0.00 | 73 | 1007.1 |
| 20260504022014 | 17 | 263 | 8.0 | 14.5 | 0.00 | 0.00 | 0.00 | 73 | 1007.1 |
| 20260504021916 | 17 | 260 | 8.0 | 17.7 | 0.00 | 0.00 | 0.00 | 73 | 1007.1 |
| 20260504021709 | 17 | 251 | 9.7 | 17.7 | 0.00 | 0.00 | 0.00 | 72 | 1007.1 |
| 20260504021609 | 17 | 287 | 9.7 | 17.7 | 0.00 | 0.00 | 0.00 | 72 | 1007.2 |
| 20260504021509 | 17 | 270 | 8.0 | 17.7 | 0.00 | 0.00 | 0.00 | 72 | 1007.2 |
| 20260504021423 | 17 | 273 | 8.0 | 17.7 | 0.00 | 0.00 | 0.00 | 71 | 1007.2 |
| 20260504021413 | 17 | 279 | 8.0 | 17.7 | 0.00 | 0.00 | 0.00 | 71 | 1007.2 |
| 20260504021204 | 17 | 280 | 8.0 | 17.7 | 0.00 | 0.00 | 0.00 | 71 | 1007.2 |
| 20260504021103 | 17 | 275 | 8.0 | 17.7 | 0.00 | 0.00 | 0.00 | 71 | 1007.2 |
| 20260504021003 | 17 | 279 | 8.0 | 17.7 | 0.00 | 0.00 | 0.00 | 71 | 1007.2 |
| 20260504020917 | 17 | 281 | 8.0 | 17.7 | 0.00 | 0.00 | 0.00 | 71 | 1007.2 |
| 20260504020907 | 18 | 278 | 8.0 | 17.7 | 0.00 | 0.00 | 0.00 | 70 | 1007.2 |
| 20260504020701 | 18 | 269 | 8.0 | 17.7 | 0.00 | 0.00 | 0.00 | 70 | 1007.3 |
| 20260504020601 | 18 | 285 | 8.0 | 17.7 | 0.00 | 0.00 | 0.00 | 70 | 1007.3 |
| 20260504020500 | 18 | 252 | 8.0 | 17.7 | 0.00 | 0.00 | 0.00 | 69 | 1007.3 |
| 20260504020359 | 18 | 282 | 8.0 | 17.7 | 0.00 | 0.00 | 0.00 | 69 | 1007.3 |
| 20260504020153 | 18 | 254 | 8.0 | 17.7 | 0.00 | 0.00 | 0.00 | 68 | 1007.2 |
| 20260504020053 | 18 | 273 | 8.0 | 17.7 | 0.00 | 0.00 | 0.00 | 68 | 1007.3 |
| 20260504015953 | 18 | 264 | 8.0 | 14.5 | 0.00 | 0.00 | 0.00 | 68 | 1007.3 |
| 20260504015905 | 18 | 263 | 8.0 | 14.5 | 0.00 | 0.00 | 0.00 | 68 | 1007.3 |
| 20260504015855 | 18 | 285 | 8.0 | 14.5 | 0.00 | 0.00 | 0.00 | 67 | 1007.3 |
| 20260504015644 | 18 | 282 | 8.0 | 14.5 | 0.00 | 0.00 | 0.00 | 67 | 1007.3 |
| 20260504015545 | 18 | 274 | 8.0 | 14.5 | 0.00 | 0.00 | 0.00 | 67 | 1007.3 |
| 20260504015445 | 18 | 254 | 8.0 | 14.5 | 0.00 | 0.00 | 0.00 | 66 | 1007.3 |
| 20260504015345 | 18 | 271 | 8.0 | 14.5 | 0.00 | 0.00 | 0.00 | 66 | 1007.3 |
| 20260504015245 | 18 | 278 | 8.0 | 14.5 | 0.00 | 0.00 | 0.00 | 66 | 1007.3 |
| 20260504015139 | 18 | 292 | 8.0 | 17.7 | 0.00 | 0.00 | 0.00 | 65 | 1007.3 |
| 20260504015039 | 18 | 268 | 8.0 | 17.7 | 0.00 | 0.00 | 0.00 | 65 | 1007.3 |
| 20260504014939 | 19 | 257 | 8.0 | 17.7 | 0.00 | 0.00 | 0.00 | 65 | 1007.3 |
| 20260504014839 | 19 | 237 | 8.0 | 17.7 | 0.00 | 0.00 | 0.00 | 65 | 1007.3 |
| 20260504014738 | 19 | 227 | 8.0 | 17.7 | 0.00 | 0.00 | 0.00 | 64 | 1007.3 |
| 20260504014633 | 19 | 301 | 8.0 | 17.7 | 0.00 | 0.00 | 0.00 | 64 | 1007.3 |
| 20260504014532 | 19 | 303 | 8.0 | 17.7 | 0.00 | 0.00 | 0.00 | 65 | 1007.3 |
| 20260504014433 | 19 | 246 | 8.0 | 17.7 | 0.00 | 0.00 | 0.00 | 64 | 1007.3 |
| 20260504014333 | 19 | 251 | 8.0 | 17.7 | 0.00 | 0.00 | 0.00 | 65 | 1007.4 |
| 20260504014232 | 19 | 236 | 8.0 | 17.7 | 0.00 | 0.00 | 0.00 | 65 | 1007.3 |
| 20260504014129 | 19 | 271 | 8.0 | 17.7 | 0.00 | 0.00 | 0.00 | 65 | 1007.4 |
| 20260504014027 | 19 | 266 | 8.0 | 17.7 | 0.00 | 0.00 | 0.00 | 65 | 1007.4 |
| 20260504013927 | 18 | 267 | 8.0 | 17.7 | 0.00 | 0.00 | 0.00 | 65 | 1007.4 |
| 20260504013827 | 18 | 275 | 8.0 | 19.3 | 0.00 | 0.00 | 0.00 | 65 | 1007.4 |
| 20260504013727 | 18 | 281 | 8.0 | 19.3 | 0.00 | 0.00 | 0.00 | 65 | 1007.4 |
| 20260504013621 | 18 | 306 | 8.0 | 19.3 | 0.00 | 0.00 | 0.00 | 65 | 1007.4 |
| 20260504013523 | 18 | 247 | 8.0 | 19.3 | 0.00 | 0.00 | 0.00 | 65 | 1007.5 |
| 20260504013421 | 18 | 282 | 8.0 | 19.3 | 0.00 | 0.00 | 0.00 | 66 | 1007.4 |
| 20260504013321 | 18 | 313 | 8.0 | 19.3 | 0.00 | 0.00 | 0.00 | 65 | 1007.5 |
| 20260504013220 | 18 | 288 | 8.0 | 19.3 | 0.00 | 0.00 | 0.00 | 65 | 1007.5 |
| 20260504013115 | 18 | 255 | 8.0 | 19.3 | 0.00 | 0.00 | 0.00 | 65 | 1007.5 |
| 20260504013015 | 18 | 290 | 9.7 | 19.3 | 0.00 | 0.00 | 0.00 | 65 | 1007.6 |
| 20260504012915 | 18 | 299 | 9.7 | 19.3 | 0.00 | 0.00 | 0.00 | 65 | 1007.5 |
| 20260504012815 | 18 | 268 | 9.7 | 19.3 | 0.00 | 0.00 | 0.00 | 65 | 1007.5 |
| 20260504012715 | 19 | 242 | 9.7 | 19.3 | 0.00 | 0.00 | 0.00 | 64 | 1007.5 |
| 20260504012609 | 19 | 279 | 9.7 | 19.3 | 0.00 | 0.00 | 0.00 | 64 | 1007.5 |
| 20260504012509 | 19 | 273 | 9.7 | 19.3 | 0.00 | 0.00 | 0.00 | 65 | 1007.5 |
| 20260504012409 | 19 | 229 | 9.7 | 19.3 | 0.00 | 0.00 | 0.00 | 64 | 1007.6 |
| 20260504012351 | 19 | 275 | 9.7 | 19.3 | 0.00 | 0.00 | 0.00 | 64 | 1007.6 |
| 20260504012209 | 19 | 232 | 9.7 | 20.9 | 0.00 | 0.00 | 0.00 | 63 | 1007.6 |
| 20260504012103 | 19 | 273 | 9.7 | 20.9 | 0.00 | 0.00 | 0.00 | 63 | 1007.6 |
| 20260504012003 | 19 | 252 | 9.7 | 20.9 | 0.00 | 0.00 | 0.00 | 63 | 1007.6 |
| 20260504011903 | 19 | 282 | 9.7 | 20.9 | 0.00 | 0.00 | 0.00 | 63 | 1007.6 |
| 20260504011803 | 19 | 250 | 9.7 | 20.9 | 0.00 | 0.00 | 0.00 | 63 | 1007.7 |
| 20260504011703 | 19 | 290 | 9.7 | 20.9 | 0.00 | 0.00 | 0.00 | 62 | 1007.6 |
| 20260504011600 | 19 | 284 | 9.7 | 20.9 | 0.00 | 0.00 | 0.00 | 62 | 1007.7 |
| 20260504011457 | 19 | 302 | 9.7 | 20.9 | 0.00 | 0.00 | 0.00 | 62 | 1007.7 |
| 20260504011357 | 19 | 289 | 9.7 | 20.9 | 0.00 | 0.00 | 0.00 | 61 | 1007.6 |
| 20260504011257 | 19 | 285 | 9.7 | 20.9 | 0.00 | 0.00 | 0.00 | 61 | 1007.7 |
| 20260504011157 | 19 | 307 | 9.7 | 20.9 | 0.00 | 0.00 | 0.00 | 61 | 1007.7 |
| 20260504011053 | 19 | 265 | 9.7 | 20.9 | 0.00 | 0.00 | 0.00 | 61 | 1007.7 |
| 20260504010951 | 19 | 272 | 9.7 | 20.9 | 0.00 | 0.00 | 0.00 | 61 | 1007.7 |
| 20260504010851 | 20 | 292 | 9.7 | 20.9 | 0.00 | 0.00 | 0.00 | 61 | 1007.7 |
| 20260504010751 | 20 | 261 | 9.7 | 20.9 | 0.00 | 0.00 | 0.00 | 60 | 1007.7 |
| 20260504010651 | 20 | 282 | 9.7 | 20.9 | 0.00 | 0.00 | 0.00 | 60 | 1007.8 |
| 20260504010545 | 20 | 290 | 9.7 | 20.9 | 0.00 | 0.00 | 0.00 | 60 | 1007.8 |
| 20260504010445 | 20 | 273 | 9.7 | 20.9 | 0.00 | 0.00 | 0.00 | 60 | 1007.8 |
| 20260504010359 | 20 | 275 | 9.7 | 20.9 | 0.00 | 0.00 | 0.00 | 59 | 1007.8 |
| 20260504010349 | 20 | 134 | 9.7 | 20.9 | 0.00 | 0.00 | 0.00 | 58 | 1007.8 |
| 20260504010145 | 20 | 247 | 9.7 | 20.9 | 0.00 | 0.00 | 0.00 | 58 | 1007.7 |
| 20260504010038 | 20 | 240 | 9.7 | 20.9 | 0.00 | 0.00 | 0.00 | 58 | 1007.8 |
| 20260504005938 | 20 | 262 | 9.7 | 20.9 | 0.00 | 0.00 | 0.00 | 57 | 1007.8 |
| 20260504005838 | 20 | 329 | 9.7 | 20.9 | 0.00 | 0.00 | 0.00 | 58 | 1007.8 |
| 20260504005740 | 20 | 242 | 9.7 | 20.9 | 0.00 | 0.00 | 0.00 | 57 | 1007.8 |
| 20260504005639 | 20 | 257 | 9.7 | 20.9 | 0.00 | 0.00 | 0.00 | 57 | 1007.8 |
| 20260504005535 | 20 | 272 | 9.7 | 20.9 | 0.00 | 0.00 | 0.00 | 56 | 1007.8 |
| 20260504005433 | 20 | 269 | 9.7 | 20.9 | 0.00 | 0.00 | 0.00 | 56 | 1007.9 |
| 20260504005334 | 20 | 293 | 9.7 | 20.9 | 0.00 | 0.00 | 0.00 | 56 | 1007.8 |
| 20260504005232 | 20 | 248 | 9.7 | 20.9 | 0.00 | 0.00 | 0.00 | 56 | 1007.8 |
| 20260504005132 | 20 | 273 | 9.7 | 19.3 | 0.00 | 0.00 | 0.00 | 56 | 1007.8 |
| 20260504005029 | 20 | 310 | 9.7 | 19.3 | 0.00 | 0.00 | 0.00 | 56 | 1007.9 |
| 20260504004929 | 20 | 223 | 9.7 | 19.3 | 0.00 | 0.00 | 0.00 | 55 | 1007.8 |
| 20260504004829 | 20 | 280 | 9.7 | 19.3 | 0.00 | 0.00 | 0.00 | 56 | 1007.9 |
| 20260504004729 | 20 | 280 | 9.7 | 19.3 | 0.00 | 0.00 | 0.00 | 56 | 1007.9 |
| 20260504004627 | 20 | 291 | 9.7 | 19.3 | 0.00 | 0.00 | 0.00 | 55 | 1007.9 |
| 20260504004522 | 20 | 258 | 9.7 | 19.3 | 0.00 | 0.00 | 0.00 | 55 | 1007.9 |
| 20260504004422 | 20 | 251 | 9.7 | 19.3 | 0.00 | 0.00 | 0.00 | 55 | 1007.9 |
| 20260504004323 | 20 | 310 | 8.0 | 19.3 | 0.00 | 0.00 | 0.00 | 56 | 1007.9 |
| 20260504004222 | 20 | 270 | 8.0 | 19.3 | 0.00 | 0.00 | 0.00 | 55 | 1007.9 |
| 20260504004120 | 20 | 355 | 8.0 | 17.7 | 0.00 | 0.00 | 0.00 | 55 | 1007.9 |
| 20260504004015 | 20 | 319 | 9.7 | 17.7 | 0.00 | 0.00 | 0.00 | 56 | 1007.9 |
| 20260504003915 | 21 | 258 | 9.7 | 17.7 | 0.00 | 0.00 | 0.00 | 55 | 1008.0 |
| 20260504003814 | 21 | 313 | 9.7 | 17.7 | 0.00 | 0.00 | 0.00 | 56 | 1008.0 |
| 20260504003715 | 21 | 269 | 9.7 | 17.7 | 0.00 | 0.00 | 0.00 | 55 | 1007.9 |
| 20260504003615 | 21 | 314 | 9.7 | 17.7 | 0.00 | 0.00 | 0.00 | 55 | 1007.9 |
| 20260504003509 | 21 | 279 | 9.7 | 17.7 | 0.00 | 0.00 | 0.00 | 55 | 1007.9 |
| 20260504003409 | 21 | 273 | 9.7 | 17.7 | 0.00 | 0.00 | 0.00 | 54 | 1008.0 |
| 20260504003309 | 21 | 261 | 9.7 | 17.7 | 0.00 | 0.00 | 0.00 | 54 | 1007.9 |
| 20260504003209 | 21 | 272 | 9.7 | 17.7 | 0.00 | 0.00 | 0.00 | 54 | 1008.0 |
| 20260504003109 | 21 | 275 | 9.7 | 17.7 | 0.00 | 0.00 | 0.00 | 54 | 1008.0 |
| 20260504003005 | 21 | 260 | 9.7 | 17.7 | 0.00 | 0.00 | 0.00 | 54 | 1008.0 |
| 20260504002904 | 21 | 288 | 9.7 | 17.7 | 0.00 | 0.00 | 0.00 | 54 | 1008.0 |
| 20260504002804 | 21 | 288 | 9.7 | 17.7 | 0.00 | 0.00 | 0.00 | 54 | 1008.0 |
| 20260504002702 | 21 | 261 | 9.7 | 17.7 | 0.00 | 0.00 | 0.00 | 55 | 1008.0 |
| 20260504002601 | 21 | 275 | 9.7 | 17.7 | 0.00 | 0.00 | 0.00 | 55 | 1008.0 |
| 20260504002455 | 21 | 311 | 9.7 | 17.7 | 0.00 | 0.00 | 0.00 | 55 | 1008.0 |
| 20260504002355 | 21 | 254 | 9.7 | 17.7 | 0.00 | 0.00 | 0.00 | 54 | 1008.1 |
| 20260504002255 | 21 | 249 | 9.7 | 17.7 | 0.00 | 0.00 | 0.00 | 54 | 1008.0 |
| 20260504002155 | 21 | 296 | 9.7 | 17.7 | 0.00 | 0.00 | 0.00 | 55 | 1008.0 |
| 20260504002054 | 21 | 316 | 9.7 | 17.7 | 0.00 | 0.00 | 0.00 | 55 | 1008.0 |
| 20260504001949 | 21 | 310 | 9.7 | 17.7 | 0.00 | 0.00 | 0.00 | 55 | 1008.0 |
| 20260504001849 | 21 | 287 | 9.7 | 17.7 | 0.00 | 0.00 | 0.00 | 55 | 1007.9 |
| 20260504001749 | 21 | 286 | 9.7 | 19.3 | 0.00 | 0.00 | 0.00 | 56 | 1008.0 |
| 20260504001649 | 21 | 275 | 9.7 | 19.3 | 0.00 | 0.00 | 0.00 | 56 | 1008.0 |
| 20260504001549 | 21 | 238 | 9.7 | 19.3 | 0.00 | 0.00 | 0.00 | 56 | 1008.0 |
| 20260504001443 | 21 | 264 | 9.7 | 19.3 | 0.00 | 0.00 | 0.00 | 56 | 1008.0 |
| 20260504001342 | 21 | 292 | 9.7 | 19.3 | 0.00 | 0.00 | 0.00 | 56 | 1008.0 |
| 20260504001330 | 21 | 286 | 9.7 | 19.3 | 0.00 | 0.00 | 0.00 | 57 | 1008.0 |
| 20260504001143 | 21 | 257 | 11.3 | 19.3 | 0.00 | 0.00 | 0.00 | 57 | 1008.0 |
| 20260504001043 | 21 | 291 | 11.3 | 19.3 | 0.00 | 0.00 | 0.00 | 58 | 1008.0 |
| 20260504000938 | 21 | 254 | 11.3 | 19.3 | 0.00 | 0.00 | 0.00 | 57 | 1008.0 |
| 20260504000839 | 21 | 273 | 11.3 | 19.3 | 0.00 | 0.00 | 0.00 | 58 | 1008.0 |
| 20260504000829 | 21 | 296 | 11.3 | 20.9 | 0.00 | 0.00 | 0.00 | 58 | 1008.0 |
| 20260504000637 | 21 | 279 | 11.3 | 20.9 | 0.00 | 0.00 | 0.00 | 58 | 1008.1 |
| 20260504000536 | 21 | 250 | 9.7 | 20.9 | 0.00 | 0.00 | 0.00 | 58 | 1008.1 |
| 20260504000432 | 21 | 236 | 9.7 | 20.9 | 0.00 | 0.00 | 0.00 | 57 | 1008.0 |
| 20260504000332 | 21 | 267 | 9.7 | 20.9 | 0.00 | 0.00 | 0.00 | 57 | 1008.0 |
| 20260504000234 | 21 | 238 | 9.7 | 20.9 | 0.00 | 0.00 | 0.00 | 57 | 1008.0 |
| 20260504000132 | 21 | 254 | 11.3 | 22.5 | 0.00 | 0.00 | 0.00 | 57 | 1008.1 |
| 20260504000030 | 21 | 351 | 9.7 | 24.1 | 0.00 | 0.00 | 0.00 | 57 | 1008.1 |
| 20260503235925 | 21 | 265 | 9.7 | 24.1 | 0.00 | 0.00 | 0.00 | 56 | 1008.2 |
| 20260503235825 | 21 | 288 | 9.7 | 24.1 | 0.00 | 0.00 | 0.00 | 56 | 1008.1 |
| 20260503235727 | 21 | 332 | 9.7 | 24.1 | 0.00 | 0.00 | 0.00 | 56 | 1008.1 |
| 20260503235625 | 21 | 276 | 9.7 | 24.1 | 0.00 | 0.00 | 0.00 | 55 | 1008.2 |
| 20260503235525 | 21 | 300 | 11.3 | 24.1 | 0.00 | 0.00 | 0.00 | 55 | 1008.2 |
| 20260503235423 | 21 | 0 | 11.3 | 24.1 | 0.00 | 0.00 | 0.00 | 54 | 1008.1 |
| 20260503235323 | 21 | 263 | 11.3 | 24.1 | 0.00 | 0.00 | 0.00 | 54 | 1008.2 |
| 20260503235123 | 21 | 304 | 9.7 | 22.5 | 0.00 | 0.00 | 0.00 | 55 | 1008.3 |
| 20260503235022 | 21 | 277 | 9.7 | 22.5 | 0.00 | 0.00 | 0.00 | 55 | 1008.3 |
| 20260503234922 | 21 | 294 | 11.3 | 22.5 | 0.00 | 0.00 | 0.00 | 55 | 1008.3 |
| 20260503234823 | 21 | 315 | 9.7 | 22.5 | 0.00 | 0.00 | 0.00 | 55 | 1008.3 |
| 20260503234622 | 21 | 281 | 11.3 | 20.9 | 0.00 | 0.00 | 0.00 | 55 | 1008.3 |
| 20260503234523 | 21 | 258 | 11.3 | 20.9 | 0.00 | 0.00 | 0.00 | 55 | 1008.3 |
| 20260503234421 | 21 | 294 | 11.3 | 20.9 | 0.00 | 0.00 | 0.00 | 55 | 1008.3 |
| 20260503234319 | 21 | 233 | 11.3 | 20.9 | 0.00 | 0.00 | 0.00 | 56 | 1008.3 |
| 20260503234216 | 21 | 265 | 11.3 | 20.9 | 0.00 | 0.00 | 0.00 | 56 | 1008.3 |
| 20260503234117 | 21 | 267 | 11.3 | 24.1 | 0.00 | 0.00 | 0.00 | 56 | 1008.3 |
| 20260503234016 | 21 | 265 | 11.3 | 24.1 | 0.00 | 0.00 | 0.00 | 56 | 1008.3 |
| 20260503233917 | 21 | 236 | 11.3 | 24.1 | 0.00 | 0.00 | 0.00 | 56 | 1008.4 |
| 20260503233817 | 21 | 262 | 11.3 | 24.1 | 0.00 | 0.00 | 0.00 | 56 | 1008.4 |
| 20260503233717 | 21 | 252 | 11.3 | 24.1 | 0.00 | 0.00 | 0.00 | 56 | 1008.4 |
| 20260503233617 | 21 | 242 | 11.3 | 24.1 | 0.00 | 0.00 | 0.00 | 56 | 1008.3 |
| 20260503233518 | 21 | 266 | 11.3 | 24.1 | 0.00 | 0.00 | 0.00 | 56 | 1008.4 |
| 20260503233417 | 21 | 241 | 11.3 | 24.1 | 0.00 | 0.00 | 0.00 | 56 | 1008.4 |
| 20260503233317 | 21 | 262 | 11.3 | 24.1 | 0.00 | 0.00 | 0.00 | 56 | 1008.4 |
| 20260503233212 | 21 | 277 | 11.3 | 24.1 | 0.00 | 0.00 | 0.00 | 57 | 1008.5 |
| 20260503233110 | 21 | 317 | 11.3 | 25.7 | 0.00 | 0.00 | 0.00 | 56 | 1008.4 |
| 20260503233010 | 21 | 279 | 11.3 | 27.4 | 0.00 | 0.00 | 0.00 | 58 | 1008.4 |
| 20260503232911 | 21 | 278 | 11.3 | 27.4 | 0.00 | 0.00 | 0.00 | 58 | 1008.4 |
| 20260503232810 | 21 | 289 | 11.3 | 27.4 | 0.00 | 0.00 | 0.00 | 58 | 1008.5 |
| 20260503232705 | 21 | 263 | 11.3 | 27.4 | 0.00 | 0.00 | 0.00 | 58 | 1008.5 |
| 20260503232605 | 21 | 283 | 11.3 | 27.4 | 0.00 | 0.00 | 0.00 | 57 | 1008.5 |
| 20260503232505 | 21 | 275 | 11.3 | 27.4 | 0.00 | 0.00 | 0.00 | 57 | 1008.5 |
| 20260503232404 | 21 | 229 | 11.3 | 27.4 | 0.00 | 0.00 | 0.00 | 58 | 1008.6 |
| 20260503232305 | 21 | 279 | 11.3 | 27.4 | 0.00 | 0.00 | 0.00 | 57 | 1008.5 |
| 20260503232159 | 21 | 296 | 11.3 | 27.4 | 0.00 | 0.00 | 0.00 | 57 | 1008.6 |
| 20260503232059 | 21 | 263 | 11.3 | 27.4 | 0.00 | 0.00 | 0.00 | 57 | 1008.5 |
| 20260503231959 | 21 | 287 | 11.3 | 19.3 | 0.00 | 0.00 | 0.00 | 58 | 1008.5 |
| 20260503231859 | 21 | 275 | 9.7 | 19.3 | 0.00 | 0.00 | 0.00 | 58 | 1008.6 |
| 20260503231759 | 21 | 258 | 9.7 | 19.3 | 0.00 | 0.00 | 0.00 | 58 | 1008.6 |
| 20260503231657 | 21 | 281 | 9.7 | 19.3 | 0.00 | 0.00 | 0.00 | 58 | 1008.5 |
| 20260503231557 | 21 | 271 | 9.7 | 19.3 | 0.00 | 0.00 | 0.00 | 57 | 1008.6 |
| 20260503231457 | 21 | 269 | 9.7 | 19.3 | 0.00 | 0.00 | 0.00 | 58 | 1008.6 |
| 20260503231356 | 21 | 281 | 9.7 | 19.3 | 0.00 | 0.00 | 0.00 | 58 | 1008.6 |
| 20260503231257 | 21 | 242 | 9.7 | 19.3 | 0.00 | 0.00 | 0.00 | 58 | 1008.6 |
| 20260503231157 | 21 | 259 | 11.3 | 19.3 | 0.00 | 0.00 | 0.00 | 58 | 1008.6 |
| 20260503231057 | 21 | 240 | 11.3 | 19.3 | 0.00 | 0.00 | 0.00 | 58 | 1008.7 |
| 20260503230957 | 21 | 300 | 11.3 | 25.7 | 0.00 | 0.00 | 0.00 | 58 | 1008.7 |
| 20260503230855 | 21 | 263 | 11.3 | 25.7 | 0.00 | 0.00 | 0.00 | 58 | 1008.7 |
| 20260503230754 | 21 | 307 | 11.3 | 25.7 | 0.00 | 0.00 | 0.00 | 58 | 1008.7 |
| 20260503230655 | 21 | 275 | 11.3 | 25.7 | 0.00 | 0.00 | 0.00 | 59 | 1008.7 |
| 20260503230554 | 21 | 257 | 11.3 | 25.7 | 0.00 | 0.00 | 0.00 | 59 | 1008.7 |
| 20260503230454 | 21 | 313 | 11.3 | 25.7 | 0.00 | 0.00 | 0.00 | 58 | 1008.7 |
| 20260503230354 | 21 | 296 | 11.3 | 25.7 | 0.00 | 0.00 | 0.00 | 57 | 1008.7 |
| 20260503230254 | 21 | 250 | 11.3 | 25.7 | 0.00 | 0.00 | 0.00 | 58 | 1008.7 |
| 20260503230153 | 21 | 252 | 11.3 | 25.7 | 0.00 | 0.00 | 0.00 | 57 | 1008.8 |
| 20260503230053 | 21 | 245 | 11.3 | 25.7 | 0.00 | 0.00 | 0.00 | 58 | 1008.8 |
| 20260503225953 | 21 | 272 | 11.3 | 25.7 | 0.00 | 0.00 | 0.00 | 58 | 1008.7 |
| 20260503225853 | 21 | 276 | 11.3 | 25.7 | 0.00 | 0.00 | 0.00 | 57 | 1008.8 |
| 20260503225820 | 21 | 325 | 11.3 | 25.7 | 0.00 | 0.00 | 0.00 | 58 | 1008.7 |
| 20260503225653 | 21 | 260 | 11.3 | 25.7 | 0.00 | 0.00 | 0.00 | 58 | 1008.8 |
| 20260503225552 | 21 | 330 | 11.3 | 25.7 | 0.00 | 0.00 | 0.00 | 57 | 1008.8 |
| 20260503225452 | 21 | 179 | 11.3 | 25.7 | 0.00 | 0.00 | 0.00 | 57 | 1008.9 |
| 20260503225352 | 21 | 263 | 11.3 | 25.7 | 0.00 | 0.00 | 0.00 | 57 | 1008.8 |
| 20260503225252 | 21 | 12 | 11.3 | 25.7 | 0.00 | 0.00 | 0.00 | 57 | 1008.9 |
| 20260503225152 | 21 | 254 | 9.7 | 25.7 | 0.00 | 0.00 | 0.00 | 57 | 1008.8 |
| 20260503225052 | 21 | 270 | 9.7 | 25.7 | 0.00 | 0.00 | 0.00 | 57 | 1008.9 |
| 20260503224952 | 21 | 257 | 9.7 | 24.1 | 0.00 | 0.00 | 0.00 | 56 | 1008.9 |
| 20260503224853 | 21 | 309 | 9.7 | 24.1 | 0.00 | 0.00 | 0.00 | 56 | 1008.9 |
| 20260503224753 | 21 | 299 | 9.7 | 24.1 | 0.00 | 0.00 | 0.00 | 56 | 1008.9 |
| 20260503224653 | 21 | 288 | 9.7 | 24.1 | 0.00 | 0.00 | 0.00 | 56 | 1008.9 |
| 20260503224549 | 21 | 291 | 9.7 | 22.5 | 0.00 | 0.00 | 0.00 | 57 | 1009.0 |
| 20260503224449 | 21 | 308 | 9.7 | 22.5 | 0.00 | 0.00 | 0.00 | 57 | 1009.0 |
| 20260503224348 | 21 | 325 | 9.7 | 22.5 | 0.00 | 0.00 | 0.00 | 56 | 1009.0 |
| 20260503224248 | 21 | 288 | 9.7 | 22.5 | 0.00 | 0.00 | 0.00 | 57 | 1009.0 |
| 20260503224148 | 21 | 272 | 9.7 | 22.5 | 0.00 | 0.00 | 0.00 | 56 | 1009.0 |
| 20260503224048 | 21 | 252 | 11.3 | 22.5 | 0.00 | 0.00 | 0.00 | 57 | 1009.0 |
| 20260503223948 | 21 | 302 | 9.7 | 22.5 | 0.00 | 0.00 | 0.00 | 57 | 1009.0 |
| 20260503223848 | 21 | 277 | 9.7 | 22.5 | 0.00 | 0.00 | 0.00 | 56 | 1009.0 |
| 20260503223748 | 21 | 257 | 9.7 | 22.5 | 0.00 | 0.00 | 0.00 | 56 | 1009.0 |
| 20260503223648 | 21 | 274 | 9.7 | 22.5 | 0.00 | 0.00 | 0.00 | 57 | 1009.0 |
| 20260503223549 | 21 | 303 | 9.7 | 22.5 | 0.00 | 0.00 | 0.00 | 56 | 1009.1 |
| 20260503223449 | 21 | 254 | 9.7 | 22.5 | 0.00 | 0.00 | 0.00 | 56 | 1009.1 |
| 20260503223349 | 21 | 277 | 9.7 | 22.5 | 0.00 | 0.00 | 0.00 | 56 | 1009.1 |
| 20260503223249 | 21 | 273 | 8.0 | 22.5 | 0.00 | 0.00 | 0.00 | 55 | 1009.1 |
| 20260503223149 | 21 | 319 | 8.0 | 19.3 | 0.00 | 0.00 | 0.00 | 56 | 1009.1 |
| 20260503223049 | 22 | 297 | 8.0 | 19.3 | 0.00 | 0.00 | 0.00 | 55 | 1009.1 |
| 20260503222948 | 22 | 288 | 9.7 | 19.3 | 0.00 | 0.00 | 0.00 | 55 | 1009.1 |
| 20260503222848 | 22 | 257 | 9.7 | 19.3 | 0.00 | 0.00 | 0.00 | 55 | 1009.1 |
| 20260503222749 | 22 | 252 | 9.7 | 17.7 | 0.00 | 0.00 | 0.00 | 55 | 1009.2 |
| 20260503222645 | 22 | 272 | 9.7 | 17.7 | 0.00 | 0.00 | 0.00 | 56 | 1009.2 |
| 20260503222545 | 22 | 292 | 9.7 | 17.7 | 0.00 | 0.00 | 0.00 | 56 | 1009.3 |
| 20260503222445 | 22 | 284 | 9.7 | 17.7 | 0.00 | 0.00 | 0.00 | 56 | 1009.3 |
| 20260503222345 | 22 | 284 | 9.7 | 17.7 | 0.00 | 0.00 | 0.00 | 55 | 1009.3 |
| 20260503222245 | 22 | 279 | 9.7 | 17.7 | 0.00 | 0.00 | 0.00 | 55 | 1009.3 |
| 20260503222144 | 22 | 216 | 9.7 | 17.7 | 0.00 | 0.00 | 0.00 | 54 | 1009.3 |
| 20260503222044 | 22 | 277 | 9.7 | 17.7 | 0.00 | 0.00 | 0.00 | 55 | 1009.3 |
| 20260503221944 | 22 | 322 | 9.7 | 24.1 | 0.00 | 0.00 | 0.00 | 55 | 1009.3 |
| 20260503221844 | 22 | 250 | 9.7 | 24.1 | 0.00 | 0.00 | 0.00 | 55 | 1009.3 |
| 20260503221744 | 22 | 303 | 9.7 | 24.1 | 0.00 | 0.00 | 0.00 | 55 | 1009.3 |
| 20260503221644 | 22 | 346 | 9.7 | 24.1 | 0.00 | 0.00 | 0.00 | 55 | 1009.3 |
| 20260503221544 | 22 | 269 | 9.7 | 24.1 | 0.00 | 0.00 | 0.00 | 55 | 1009.3 |
| 20260503221445 | 22 | 244 | 9.7 | 24.1 | 0.00 | 0.00 | 0.00 | 55 | 1009.3 |
| 20260503221345 | 22 | 355 | 9.7 | 24.1 | 0.00 | 0.00 | 0.00 | 55 | 1009.3 |
| 20260503221245 | 22 | 260 | 9.7 | 24.1 | 0.00 | 0.00 | 0.00 | 56 | 1009.3 |
| 20260503221145 | 22 | 233 | 9.7 | 24.1 | 0.00 | 0.00 | 0.00 | 55 | 1009.3 |
| 20260503221045 | 22 | 260 | 11.3 | 24.1 | 0.00 | 0.00 | 0.00 | 55 | 1009.3 |
| 20260503220945 | 22 | 300 | 9.7 | 24.1 | 0.00 | 0.00 | 0.00 | 55 | 1009.3 |
| 20260503220844 | 22 | 275 | 9.7 | 24.1 | 0.00 | 0.00 | 0.00 | 55 | 1009.3 |
| 20260503220740 | 22 | 330 | 9.7 | 24.1 | 0.00 | 0.00 | 0.00 | 55 | 1009.3 |
| 20260503220640 | 22 | 252 | 9.7 | 24.1 | 0.00 | 0.00 | 0.00 | 54 | 1009.4 |
| 20260503220540 | 22 | 245 | 9.7 | 24.1 | 0.00 | 0.00 | 0.00 | 54 | 1009.4 |
| 20260503220440 | 22 | 267 | 9.7 | 24.1 | 0.00 | 0.00 | 0.00 | 54 | 1009.3 |
| 20260503220341 | 22 | 280 | 9.7 | 24.1 | 0.00 | 0.00 | 0.00 | 54 | 1009.3 |
| 20260503220241 | 22 | 181 | 9.7 | 24.1 | 0.00 | 0.00 | 0.00 | 53 | 1009.3 |
| 20260503220141 | 22 | 291 | 9.7 | 24.1 | 0.00 | 0.00 | 0.00 | 53 | 1009.3 |
| 20260503220041 | 22 | 281 | 9.7 | 24.1 | 0.00 | 0.00 | 0.00 | 54 | 1009.4 |
| 20260503215941 | 22 | 250 | 9.7 | 19.3 | 0.00 | 0.00 | 0.00 | 54 | 1009.4 |
| 20260503215841 | 22 | 319 | 9.7 | 19.3 | 0.00 | 0.00 | 0.00 | 54 | 1009.4 |
| 20260503215741 | 22 | 219 | 9.7 | 19.3 | 0.00 | 0.00 | 0.00 | 52 | 1009.4 |
| 20260503215641 | 22 | 286 | 9.7 | 19.3 | 0.00 | 0.00 | 0.00 | 52 | 1009.4 |
| 20260503215541 | 22 | 267 | 9.7 | 19.3 | 0.00 | 0.00 | 0.00 | 53 | 1009.4 |
| 20260503215441 | 22 | 237 | 8.0 | 19.3 | 0.00 | 0.00 | 0.00 | 52 | 1009.4 |
| 20260503215341 | 22 | 255 | 8.0 | 19.3 | 0.00 | 0.00 | 0.00 | 52 | 1009.4 |
| 20260503215241 | 22 | 265 | 8.0 | 19.3 | 0.00 | 0.00 | 0.00 | 53 | 1009.4 |
| 20260503215141 | 22 | 267 | 9.7 | 20.9 | 0.00 | 0.00 | 0.00 | 53 | 1009.4 |